Wetterdaten: Donnerstag, 12.02.2015
Datum Zeit Temp. Aussen +5cm Feuchte Auss Luftdruck Regen Sonnenschein Regendauer Solar Windben
12.02.2015 00:00 0,8 C -0,6 C 94 % 1022,1 hPa 0,0 l/m 0 min 0 min 0 W/m 16,7 km/h (3 Bft)
12.02.2015 00:02 0,8 C -0,6 C 94 % 1022,1 hPa 0,0 l/m 0 min 0 min 0 W/m 4,2 km/h (1 Bft)
12.02.2015 00:06 0,8 C -0,6 C 94 % 1022,1 hPa 0,0 l/m 0 min 0 min 0 W/m 16,7 km/h (3 Bft)
12.02.2015 00:08 0,8 C -0,6 C 94 % 1022,1 hPa 0,0 l/m 0 min 0 min 0 W/m 14,6 km/h (3 Bft)
12.02.2015 00:10 0,8 C -0,6 C 94 % 1022,1 hPa 0,0 l/m 0 min 0 min 0 W/m 16,7 km/h (3 Bft)
12.02.2015 00:12 0,8 C -0,6 C 94 % 1022,1 hPa 0,0 l/m 0 min 0 min 0 W/m 16,7 km/h (3 Bft)
12.02.2015 00:14 0,8 C -0,6 C 94 % 1022,1 hPa 0,0 l/m 0 min 0 min 0 W/m 12,6 km/h (3 Bft)
12.02.2015 00:16 0,8 C -0,6 C 94 % 1022,1 hPa 0,0 l/m 0 min 0 min 0 W/m 14,6 km/h (3 Bft)
12.02.2015 00:18 0,8 C -0,6 C 94 % 1022,0 hPa 0,0 l/m 0 min 0 min 0 W/m 18,8 km/h (3 Bft)
12.02.2015 00:20 0,8 C -0,6 C 94 % 1022,1 hPa 0,0 l/m 0 min 0 min 0 W/m 20,9 km/h (4 Bft)
12.02.2015 00:22 0,8 C -0,6 C 94 % 1022,1 hPa 0,0 l/m 0 min 0 min 0 W/m 20,9 km/h (4 Bft)
12.02.2015 00:24 0,8 C -0,6 C 94 % 1022,1 hPa 0,0 l/m 0 min 0 min 0 W/m 16,7 km/h (3 Bft)
12.02.2015 00:26 0,8 C -0,6 C 94 % 1022,1 hPa 0,0 l/m 0 min 0 min 0 W/m 29,3 km/h (5 Bft)
12.02.2015 00:28 0,8 C -0,6 C 94 % 1022,1 hPa 0,0 l/m 0 min 0 min 0 W/m 14,6 km/h (3 Bft)
12.02.2015 00:30 0,8 C -0,6 C 94 % 1022,2 hPa 0,0 l/m 0 min 0 min 0 W/m 23,0 km/h (4 Bft)
12.02.2015 00:32 0,8 C -0,6 C 94 % 1022,2 hPa 0,0 l/m 0 min 0 min 0 W/m 18,8 km/h (3 Bft)
12.02.2015 00:34 0,8 C -0,6 C 94 % 1022,1 hPa 0,0 l/m 0 min 0 min 0 W/m 18,8 km/h (3 Bft)
12.02.2015 00:36 0,8 C -0,6 C 94 % 1022,2 hPa 0,0 l/m 0 min 0 min 0 W/m 20,9 km/h (4 Bft)
12.02.2015 00:38 0,8 C -0,6 C 94 % 1022,2 hPa 0,0 l/m 0 min 0 min 0 W/m 20,9 km/h (4 Bft)
12.02.2015 00:40 0,8 C -0,6 C 94 % 1022,2 hPa 0,0 l/m 0 min 0 min 0 W/m 18,8 km/h (3 Bft)
12.02.2015 00:42 0,8 C -0,6 C 94 % 1022,2 hPa 0,0 l/m 0 min 0 min 0 W/m 20,9 km/h (4 Bft)
12.02.2015 00:44 0,8 C -0,6 C 94 % 1022,2 hPa 0,0 l/m 0 min 0 min 0 W/m 14,6 km/h (3 Bft)
12.02.2015 00:46 0,8 C -0,6 C 94 % 1022,2 hPa 0,0 l/m 0 min 0 min 0 W/m 20,9 km/h (4 Bft)
12.02.2015 00:48 0,7 C -0,6 C 94 % 1022,2 hPa 0,0 l/m 0 min 0 min 0 W/m 20,9 km/h (4 Bft)
12.02.2015 00:50 0,8 C -0,6 C 94 % 1022,1 hPa 0,0 l/m 0 min 0 min 0 W/m 20,9 km/h (4 Bft)
12.02.2015 00:52 0,7 C -0,6 C 94 % 1022,1 hPa 0,0 l/m 0 min 0 min 0 W/m 23,0 km/h (4 Bft)
12.02.2015 00:54 0,7 C -0,6 C 94 % 1022,1 hPa 0,0 l/m 0 min 0 min 0 W/m 20,9 km/h (4 Bft)
12.02.2015 00:56 0,7 C -0,6 C 94 % 1022,1 hPa 0,0 l/m 0 min 0 min 0 W/m 14,6 km/h (3 Bft)
12.02.2015 00:58 0,7 C -0,6 C 94 % 1022,1 hPa 0,0 l/m 0 min 0 min 0 W/m 16,7 km/h (3 Bft)
12.02.2015 01:00 0,7 C -0,6 C 94 % 1022,2 hPa 0,0 l/m 0 min 0 min 0 W/m 20,9 km/h (4 Bft)
12.02.2015 01:02 0,7 C -0,6 C 94 % 1022,2 hPa 0,0 l/m 0 min 0 min 0 W/m 18,8 km/h (3 Bft)
12.02.2015 01:04 0,7 C -0,6 C 94 % 1022,2 hPa 0,0 l/m 0 min 0 min 0 W/m 18,8 km/h (3 Bft)
12.02.2015 01:06 0,7 C -0,6 C 94 % 1022,2 hPa 0,0 l/m 0 min 0 min 0 W/m 18,8 km/h (3 Bft)
12.02.2015 01:08 0,7 C -0,6 C 94 % 1022,2 hPa 0,0 l/m 0 min 0 min 0 W/m 14,6 km/h (3 Bft)
12.02.2015 01:10 0,7 C -0,6 C 94 % 1022,1 hPa 0,0 l/m 0 min 0 min 0 W/m 18,8 km/h (3 Bft)
12.02.2015 01:12 0,7 C -0,6 C 94 % 1022,1 hPa 0,0 l/m 0 min 0 min 0 W/m 23,0 km/h (4 Bft)
12.02.2015 01:14 0,7 C -0,6 C 94 % 1022,1 hPa 0,0 l/m 0 min 0 min 0 W/m 18,8 km/h (3 Bft)
12.02.2015 01:16 0,7 C -0,6 C 94 % 1022,1 hPa 0,0 l/m 0 min 0 min 0 W/m 23,0 km/h (4 Bft)
12.02.2015 01:18 0,7 C -0,6 C 94 % 1022,1 hPa 0,0 l/m 0 min 0 min 0 W/m 16,7 km/h (3 Bft)
12.02.2015 01:20 0,7 C -0,6 C 94 % 1022,1 hPa 0,0 l/m 0 min 0 min 0 W/m 23,0 km/h (4 Bft)
12.02.2015 01:22 0,7 C -0,6 C 94 % 1022,1 hPa 0,0 l/m 0 min 0 min 0 W/m 16,7 km/h (3 Bft)
12.02.2015 01:24 0,7 C -0,6 C 94 % 1022,1 hPa 0,0 l/m 0 min 0 min 0 W/m 18,8 km/h (3 Bft)
12.02.2015 01:26 0,7 C -0,6 C 94 % 1022,1 hPa 0,0 l/m 0 min 0 min 0 W/m 18,8 km/h (3 Bft)
12.02.2015 01:28 0,7 C -0,6 C 94 % 1022,1 hPa 0,0 l/m 0 min 0 min 0 W/m 25,1 km/h (4 Bft)
12.02.2015 01:30 0,7 C -0,6 C 94 % 1022,1 hPa 0,0 l/m 0 min 0 min 0 W/m 18,8 km/h (3 Bft)
12.02.2015 01:32 0,7 C -0,6 C 94 % 1022,2 hPa 0,0 l/m 0 min 0 min 0 W/m 20,9 km/h (4 Bft)
12.02.2015 01:34 0,7 C -0,6 C 94 % 1022,1 hPa 0,0 l/m 0 min 0 min 0 W/m 20,9 km/h (4 Bft)
12.02.2015 01:36 0,7 C -0,6 C 94 % 1022,1 hPa 0,0 l/m 0 min 0 min 0 W/m 18,8 km/h (3 Bft)
12.02.2015 01:38 0,7 C -0,6 C 94 % 1022,1 hPa 0,0 l/m 0 min 0 min 0 W/m 25,1 km/h (4 Bft)
12.02.2015 01:40 0,7 C -0,6 C 94 % 1022,1 hPa 0,0 l/m 0 min 0 min 0 W/m 20,9 km/h (4 Bft)
12.02.2015 01:42 0,7 C -0,6 C 94 % 1022,1 hPa 0,0 l/m 0 min 0 min 0 W/m 14,6 km/h (3 Bft)
12.02.2015 01:44 0,7 C -0,6 C 94 % 1022,1 hPa 0,0 l/m 0 min 0 min 0 W/m 14,6 km/h (3 Bft)
12.02.2015 01:46 0,6 C -0,6 C 94 % 1022,2 hPa 0,0 l/m 0 min 0 min 0 W/m 20,9 km/h (4 Bft)
12.02.2015 01:48 0,6 C -0,6 C 94 % 1022,2 hPa 0,0 l/m 0 min 0 min 0 W/m 16,7 km/h (3 Bft)
12.02.2015 01:50 0,7 C -0,6 C 94 % 1022,2 hPa 0,0 l/m 0 min 0 min 0 W/m 18,8 km/h (3 Bft)
12.02.2015 01:52 0,7 C -0,6 C 94 % 1022,1 hPa 0,0 l/m 0 min 0 min 0 W/m 20,9 km/h (4 Bft)
12.02.2015 01:54 0,6 C -0,6 C 94 % 1022,1 hPa 0,0 l/m 0 min 0 min 0 W/m 16,7 km/h (3 Bft)
12.02.2015 01:56 0,6 C -0,6 C 94 % 1022,1 hPa 0,0 l/m 0 min 0 min 0 W/m 20,9 km/h (4 Bft)
12.02.2015 01:58 0,7 C -0,6 C 94 % 1022,0 hPa 0,0 l/m 0 min 0 min 0 W/m 14,6 km/h (3 Bft)
12.02.2015 02:00 0,6 C -0,6 C 94 % 1022,0 hPa 0,0 l/m 0 min 0 min 0 W/m 16,7 km/h (3 Bft)
12.02.2015 02:02 0,6 C -0,6 C 94 % 1022,0 hPa 0,0 l/m 0 min 0 min 0 W/m 16,7 km/h (3 Bft)
12.02.2015 02:04 0,6 C -0,6 C 94 % 1021,9 hPa 0,0 l/m 0 min 0 min 0 W/m 18,8 km/h (3 Bft)
12.02.2015 02:06 0,6 C -0,6 C 94 % 1022,1 hPa 0,0 l/m 0 min 0 min 0 W/m 16,7 km/h (3 Bft)
12.02.2015 02:08 0,6 C -0,6 C 94 % 1022,0 hPa 0,0 l/m 0 min 0 min 0 W/m 16,7 km/h (3 Bft)
12.02.2015 02:10 0,6 C -0,6 C 94 % 1022,0 hPa 0,0 l/m 0 min 0 min 0 W/m 12,6 km/h (3 Bft)
12.02.2015 02:12 0,6 C -0,6 C 94 % 1022,0 hPa 0,0 l/m 0 min 0 min 0 W/m 10,5 km/h (2 Bft)
12.02.2015 02:14 0,6 C -0,6 C 94 % 1022,0 hPa 0,0 l/m 0 min 0 min 0 W/m 18,8 km/h (3 Bft)
12.02.2015 02:16 0,6 C -0,6 C 94 % 1022,0 hPa 0,0 l/m 0 min 0 min 0 W/m 16,7 km/h (3 Bft)
12.02.2015 02:18 0,6 C -0,6 C 94 % 1022,0 hPa 0,0 l/m 0 min 0 min 0 W/m 20,9 km/h (4 Bft)
12.02.2015 02:20 0,6 C -0,6 C 94 % 1022,0 hPa 0,0 l/m 0 min 0 min 0 W/m 25,1 km/h (4 Bft)
12.02.2015 02:22 0,6 C -0,6 C 94 % 1022,1 hPa 0,0 l/m 0 min 0 min 0 W/m 25,1 km/h (4 Bft)
12.02.2015 02:24 0,6 C -0,6 C 94 % 1022,1 hPa 0,0 l/m 0 min 0 min 0 W/m 16,7 km/h (3 Bft)
12.02.2015 02:26 0,6 C -0,6 C 94 % 1022,1 hPa 0,0 l/m 0 min 0 min 0 W/m 16,7 km/h (3 Bft)
12.02.2015 02:28 0,6 C -0,6 C 94 % 1022,1 hPa 0,0 l/m 0 min 0 min 0 W/m 14,6 km/h (3 Bft)
12.02.2015 02:30 0,6 C -0,6 C 94 % 1022,2 hPa 0,0 l/m 0 min 0 min 0 W/m 14,6 km/h (3 Bft)
12.02.2015 02:32 0,6 C -0,6 C 94 % 1022,2 hPa 0,0 l/m 0 min 0 min 0 W/m 18,8 km/h (3 Bft)
12.02.2015 02:34 0,6 C -0,6 C 94 % 1022,1 hPa 0,0 l/m 0 min 0 min 0 W/m 23,0 km/h (4 Bft)
12.02.2015 02:36 0,6 C -0,6 C 94 % 1022,1 hPa 0,0 l/m 0 min 0 min 0 W/m 14,6 km/h (3 Bft)
12.02.2015 02:38 0,6 C -0,6 C 94 % 1022,2 hPa 0,0 l/m 0 min 0 min 0 W/m 18,8 km/h (3 Bft)
12.02.2015 02:40 0,6 C -0,6 C 94 % 1022,1 hPa 0,0 l/m 0 min 0 min 0 W/m 20,9 km/h (4 Bft)
12.02.2015 02:42 0,6 C -0,6 C 94 % 1022,2 hPa 0,0 l/m 0 min 0 min 0 W/m 20,9 km/h (4 Bft)
12.02.2015 02:44 0,6 C -0,6 C 94 % 1022,2 hPa 0,0 l/m 0 min 0 min 0 W/m 20,9 km/h (4 Bft)
12.02.2015 02:46 0,5 C -0,6 C 94 % 1022,2 hPa 0,0 l/m 0 min 0 min 0 W/m 20,9 km/h (4 Bft)
12.02.2015 02:48 0,6 C -0,6 C 94 % 1022,2 hPa 0,0 l/m 0 min 0 min 0 W/m 18,8 km/h (3 Bft)
12.02.2015 02:50 0,6 C -0,6 C 94 % 1022,2 hPa 0,0 l/m 0 min 0 min 0 W/m 18,8 km/h (3 Bft)
12.02.2015 02:52 0,6 C -0,6 C 94 % 1022,2 hPa 0,0 l/m 0 min 0 min 0 W/m 14,6 km/h (3 Bft)
12.02.2015 02:54 0,6 C -0,6 C 94 % 1022,2 hPa 0,0 l/m 0 min 0 min 0 W/m 20,9 km/h (4 Bft)
12.02.2015 02:56 0,6 C -0,6 C 94 % 1022,1 hPa 0,0 l/m 0 min 0 min 0 W/m 18,8 km/h (3 Bft)
12.02.2015 02:58 0,6 C -0,6 C 94 % 1022,1 hPa 0,0 l/m 0 min 0 min 0 W/m 18,8 km/h (3 Bft)
12.02.2015 03:00 0,6 C -0,6 C 94 % 1022,1 hPa 0,0 l/m 0 min 0 min 0 W/m 18,8 km/h (3 Bft)
12.02.2015 03:02 0,6 C -0,6 C 94 % 1022,0 hPa 0,0 l/m 0 min 0 min 0 W/m 18,8 km/h (3 Bft)
12.02.2015 03:04 0,6 C -0,6 C 94 % 1022,0 hPa 0,0 l/m 0 min 0 min 0 W/m 16,7 km/h (3 Bft)
12.02.2015 03:06 0,6 C -0,6 C 94 % 1022,0 hPa 0,0 l/m 0 min 0 min 0 W/m 20,9 km/h (4 Bft)
12.02.2015 03:08 0,6 C -0,6 C 94 % 1021,9 hPa 0,0 l/m 0 min 0 min 0 W/m 18,8 km/h (3 Bft)
12.02.2015 03:10 0,6 C -0,6 C 95 % 1022,0 hPa 0,0 l/m 0 min 0 min 0 W/m 18,8 km/h (3 Bft)
12.02.2015 03:12 0,5 C -0,6 C 95 % 1022,0 hPa 0,0 l/m 0 min 0 min 0 W/m 12,6 km/h (3 Bft)
12.02.2015 03:14 0,6 C -0,6 C 95 % 1022,0 hPa 0,0 l/m 0 min 0 min 0 W/m 18,8 km/h (3 Bft)
12.02.2015 03:16 0,5 C -0,6 C 95 % 1022,0 hPa 0,0 l/m 0 min 0 min 0 W/m 18,8 km/h (3 Bft)
12.02.2015 03:18 0,5 C -0,6 C 95 % 1021,9 hPa 0,0 l/m 0 min 0 min 0 W/m 18,8 km/h (3 Bft)
12.02.2015 03:20 0,5 C -1,1 C 95 % 1021,9 hPa 0,0 l/m 0 min 0 min 0 W/m 10,5 km/h (2 Bft)
12.02.2015 03:22 0,5 C -1,1 C 95 % 1021,9 hPa 0,0 l/m 0 min 0 min 0 W/m 20,9 km/h (4 Bft)
12.02.2015 03:24 0,5 C -0,6 C 95 % 1021,9 hPa 0,0 l/m 0 min 0 min 0 W/m 25,1 km/h (4 Bft)
12.02.2015 03:26 0,5 C -0,6 C 95 % 1021,8 hPa 0,0 l/m 0 min 0 min 0 W/m 18,8 km/h (3 Bft)
12.02.2015 03:28 0,5 C -1,1 C 95 % 1021,8 hPa 0,0 l/m 0 min 0 min 0 W/m 25,1 km/h (4 Bft)
12.02.2015 03:30 0,5 C -0,6 C 95 % 1021,8 hPa 0,0 l/m 0 min 0 min 0 W/m 16,7 km/h (3 Bft)
12.02.2015 03:32 0,5 C -1,1 C 95 % 1021,8 hPa 0,0 l/m 0 min 0 min 0 W/m 16,7 km/h (3 Bft)
12.02.2015 03:34 0,5 C -1,1 C 95 % 1021,8 hPa 0,0 l/m 0 min 0 min 0 W/m 14,6 km/h (3 Bft)
12.02.2015 03:36 0,5 C -1,1 C 95 % 1021,8 hPa 0,0 l/m 0 min 0 min 0 W/m 18,8 km/h (3 Bft)
12.02.2015 03:38 0,5 C -0,6 C 95 % 1021,8 hPa 0,0 l/m 0 min 0 min 0 W/m 18,8 km/h (3 Bft)
12.02.2015 03:40 0,5 C -0,6 C 95 % 1021,8 hPa 0,0 l/m 0 min 0 min 0 W/m 16,7 km/h (3 Bft)
12.02.2015 03:42 0,5 C -0,6 C 95 % 1021,8 hPa 0,0 l/m 0 min 0 min 0 W/m 14,6 km/h (3 Bft)
12.02.2015 03:44 0,5 C -0,6 C 95 % 1021,8 hPa 0,0 l/m 0 min 0 min 0 W/m 14,6 km/h (3 Bft)
12.02.2015 03:46 0,5 C -1,1 C 95 % 1021,8 hPa 0,0 l/m 0 min 0 min 0 W/m 14,6 km/h (3 Bft)
12.02.2015 03:48 0,5 C -1,1 C 95 % 1021,8 hPa 0,0 l/m 0 min 0 min 0 W/m 12,6 km/h (3 Bft)
12.02.2015 03:50 0,5 C -1,1 C 95 % 1021,8 hPa 0,0 l/m 0 min 0 min 0 W/m 18,8 km/h (3 Bft)
12.02.2015 03:52 0,5 C -1,1 C 95 % 1021,7 hPa 0,0 l/m 0 min 0 min 0 W/m 10,5 km/h (2 Bft)
12.02.2015 03:54 0,5 C -1,1 C 95 % 1021,7 hPa 0,0 l/m 0 min 0 min 0 W/m 16,7 km/h (3 Bft)
12.02.2015 03:56 0,5 C -1,1 C 95 % 1021,7 hPa 0,0 l/m 0 min 0 min 0 W/m 14,6 km/h (3 Bft)
12.02.2015 03:58 0,5 C -1,1 C 95 % 1021,7 hPa 0,0 l/m 0 min 0 min 0 W/m 16,7 km/h (3 Bft)
12.02.2015 04:00 0,5 C -1,1 C 95 % 1021,7 hPa 0,0 l/m 0 min 0 min 0 W/m 16,7 km/h (3 Bft)
12.02.2015 04:02 0,5 C -1,1 C 95 % 1021,7 hPa 0,0 l/m 0 min 0 min 0 W/m 14,6 km/h (3 Bft)
12.02.2015 04:04 0,5 C -1,1 C 95 % 1021,7 hPa 0,0 l/m 0 min 0 min 0 W/m 16,7 km/h (3 Bft)
12.02.2015 04:06 0,5 C -1,1 C 95 % 1021,7 hPa 0,0 l/m 0 min 0 min 0 W/m 16,7 km/h (3 Bft)
12.02.2015 04:08 0,5 C -1,1 C 95 % 1021,7 hPa 0,0 l/m 0 min 0 min 0 W/m 14,6 km/h (3 Bft)
12.02.2015 04:10 0,5 C -1,1 C 95 % 1021,6 hPa 0,0 l/m 0 min 0 min 0 W/m 12,6 km/h (3 Bft)
12.02.2015 04:12 0,5 C -1,1 C 95 % 1021,8 hPa 0,0 l/m 0 min 0 min 0 W/m 14,6 km/h (3 Bft)
12.02.2015 04:14 0,5 C -1,1 C 95 % 1021,8 hPa 0,0 l/m 0 min 0 min 0 W/m 14,6 km/h (3 Bft)
12.02.2015 04:16 0,5 C -1,1 C 95 % 1021,6 hPa 0,0 l/m 0 min 0 min 0 W/m 14,6 km/h (3 Bft)
12.02.2015 04:18 0,4 C -1,1 C 95 % 1021,6 hPa 0,0 l/m 0 min 0 min 0 W/m 16,7 km/h (3 Bft)
12.02.2015 04:20 0,4 C -1,1 C 95 % 1021,6 hPa 0,0 l/m 0 min 0 min 0 W/m 14,6 km/h (3 Bft)
12.02.2015 04:22 0,4 C -1,1 C 95 % 1021,7 hPa 0,0 l/m 0 min 0 min 0 W/m 14,6 km/h (3 Bft)
12.02.2015 04:24 0,4 C -1,1 C 95 % 1021,6 hPa 0,0 l/m 0 min 0 min 0 W/m 18,8 km/h (3 Bft)
12.02.2015 04:26 0,4 C -1,1 C 95 % 1021,7 hPa 0,0 l/m 0 min 0 min 0 W/m 14,6 km/h (3 Bft)
12.02.2015 04:28 0,4 C -1,1 C 95 % 1021,6 hPa 0,0 l/m 0 min 0 min 0 W/m 16,7 km/h (3 Bft)
12.02.2015 04:30 0,4 C -1,1 C 95 % 1021,6 hPa 0,0 l/m 0 min 0 min 0 W/m 16,7 km/h (3 Bft)
12.02.2015 04:32 0,4 C -1,1 C 95 % 1021,6 hPa 0,0 l/m 0 min 0 min 0 W/m 16,7 km/h (3 Bft)
12.02.2015 04:34 0,4 C -1,1 C 95 % 1021,6 hPa 0,0 l/m 0 min 0 min 0 W/m 12,6 km/h (3 Bft)
12.02.2015 04:36 0,4 C -1,1 C 95 % 1021,6 hPa 0,0 l/m 0 min 0 min 0 W/m 12,6 km/h (3 Bft)
12.02.2015 04:38 0,4 C -1,1 C 95 % 1021,6 hPa 0,0 l/m 0 min 0 min 0 W/m 14,6 km/h (3 Bft)
12.02.2015 04:40 0,4 C -1,1 C 95 % 1021,6 hPa 0,0 l/m 0 min 0 min 0 W/m 12,6 km/h (3 Bft)
12.02.2015 04:42 0,4 C -1,1 C 95 % 1021,7 hPa 0,0 l/m 0 min 0 min 0 W/m 14,6 km/h (3 Bft)
12.02.2015 04:44 0,3 C -1,1 C 95 % 1021,6 hPa 0,0 l/m 0 min 0 min 0 W/m 12,6 km/h (3 Bft)
12.02.2015 04:46 0,3 C -1,1 C 95 % 1021,6 hPa 0,0 l/m 0 min 0 min 0 W/m 14,6 km/h (3 Bft)
12.02.2015 04:48 0,3 C -1,1 C 95 % 1021,6 hPa 0,0 l/m 0 min 0 min 0 W/m 12,6 km/h (3 Bft)
12.02.2015 04:50 0,3 C -1,1 C 95 % 1021,6 hPa 0,0 l/m 0 min 0 min 0 W/m 10,5 km/h (2 Bft)
12.02.2015 04:52 0,3 C -1,1 C 95 % 1021,5 hPa 0,0 l/m 0 min 0 min 0 W/m 10,5 km/h (2 Bft)
12.02.2015 04:54 0,3 C -1,1 C 95 % 1021,5 hPa 0,0 l/m 0 min 0 min 0 W/m 12,6 km/h (3 Bft)
12.02.2015 04:56 0,3 C -1,1 C 95 % 1021,5 hPa 0,0 l/m 0 min 0 min 0 W/m 12,6 km/h (3 Bft)
12.02.2015 04:58 0,3 C -1,1 C 95 % 1021,5 hPa 0,0 l/m 0 min 0 min 0 W/m 14,6 km/h (3 Bft)
12.02.2015 05:00 0,3 C -1,1 C 95 % 1021,5 hPa 0,0 l/m 0 min 0 min 0 W/m 10,5 km/h (2 Bft)
12.02.2015 05:02 0,3 C -1,1 C 95 % 1021,5 hPa 0,0 l/m 0 min 0 min 0 W/m 12,6 km/h (3 Bft)
12.02.2015 05:04 0,3 C -1,1 C 95 % 1021,5 hPa 0,0 l/m 0 min 0 min 0 W/m 12,6 km/h (3 Bft)
12.02.2015 05:06 0,3 C -1,1 C 95 % 1021,5 hPa 0,0 l/m 0 min 0 min 0 W/m 14,6 km/h (3 Bft)
12.02.2015 05:08 0,3 C -1,1 C 95 % 1021,4 hPa 0,0 l/m 0 min 0 min 0 W/m 14,6 km/h (3 Bft)
12.02.2015 05:10 0,3 C -1,1 C 95 % 1021,4 hPa 0,0 l/m 0 min 0 min 0 W/m 10,5 km/h (2 Bft)
12.02.2015 05:12 0,3 C -1,1 C 95 % 1021,4 hPa 0,0 l/m 0 min 0 min 0 W/m 10,5 km/h (2 Bft)
12.02.2015 05:14 0,3 C -1,1 C 95 % 1021,4 hPa 0,0 l/m 0 min 0 min 0 W/m 16,7 km/h (3 Bft)
12.02.2015 05:16 0,3 C -1,1 C 95 % 1021,4 hPa 0,0 l/m 0 min 0 min 0 W/m 10,5 km/h (2 Bft)
12.02.2015 05:18 0,3 C -1,1 C 95 % 1021,4 hPa 0,0 l/m 0 min 0 min 0 W/m 10,5 km/h (2 Bft)
12.02.2015 05:20 0,2 C -1,1 C 95 % 1021,4 hPa 0,0 l/m 0 min 0 min 0 W/m 14,6 km/h (3 Bft)
12.02.2015 05:22 0,3 C -1,7 C 95 % 1021,4 hPa 0,0 l/m 0 min 0 min 0 W/m 10,5 km/h (2 Bft)
12.02.2015 05:24 0,2 C -1,7 C 95 % 1021,4 hPa 0,0 l/m 0 min 0 min 0 W/m 12,6 km/h (3 Bft)
12.02.2015 05:26 0,2 C -1,7 C 95 % 1021,4 hPa 0,0 l/m 0 min 0 min 0 W/m 10,5 km/h (2 Bft)
12.02.2015 05:28 0,2 C -1,7 C 95 % 1021,3 hPa 0,0 l/m 0 min 0 min 0 W/m 8,4 km/h (2 Bft)
12.02.2015 05:30 0,2 C -1,7 C 95 % 1021,4 hPa 0,0 l/m 0 min 0 min 0 W/m 8,4 km/h (2 Bft)
12.02.2015 05:32 0,2 C -1,7 C 95 % 1021,4 hPa 0,0 l/m 0 min 0 min 0 W/m 10,5 km/h (2 Bft)
12.02.2015 05:34 0,2 C -1,7 C 95 % 1021,4 hPa 0,0 l/m 0 min 0 min 0 W/m 8,4 km/h (2 Bft)
12.02.2015 05:36 0,2 C -1,7 C 95 % 1021,4 hPa 0,0 l/m 0 min 0 min 0 W/m 14,6 km/h (3 Bft)
12.02.2015 05:38 0,2 C -1,7 C 95 % 1021,4 hPa 0,0 l/m 0 min 0 min 0 W/m 10,5 km/h (2 Bft)
12.02.2015 05:40 0,2 C -1,7 C 95 % 1021,3 hPa 0,0 l/m 0 min 0 min 0 W/m 8,4 km/h (2 Bft)
12.02.2015 05:42 0,2 C -1,7 C 95 % 1021,3 hPa 0,0 l/m 0 min 0 min 0 W/m 12,6 km/h (3 Bft)
12.02.2015 05:44 0,2 C -1,7 C 95 % 1021,3 hPa 0,0 l/m 0 min 0 min 0 W/m 10,5 km/h (2 Bft)
12.02.2015 05:46 0,2 C -1,7 C 95 % 1021,3 hPa 0,0 l/m 0 min 0 min 0 W/m 10,5 km/h (2 Bft)
12.02.2015 05:48 0,2 C -1,7 C 95 % 1021,3 hPa 0,2 l/m 0 min 0 min 0 W/m 8,4 km/h (2 Bft)
12.02.2015 05:50 0,2 C -1,7 C 95 % 1021,3 hPa 0,0 l/m 0 min 0 min 0 W/m 10,5 km/h (2 Bft)
12.02.2015 05:52 0,2 C -1,7 C 95 % 1021,3 hPa 0,0 l/m 0 min 0 min 0 W/m 12,6 km/h (3 Bft)
12.02.2015 05:54 0,2 C -1,7 C 95 % 1021,3 hPa 0,0 l/m 0 min 0 min 0 W/m 8,4 km/h (2 Bft)
12.02.2015 05:56 0,2 C -1,7 C 95 % 1021,3 hPa 0,0 l/m 0 min 0 min 0 W/m 16,7 km/h (3 Bft)
12.02.2015 05:58 0,2 C -1,7 C 95 % 1021,3 hPa 0,0 l/m 0 min 0 min 0 W/m 10,5 km/h (2 Bft)
12.02.2015 06:00 0,1 C -1,7 C 95 % 1021,3 hPa 0,0 l/m 0 min 0 min 0 W/m 8,4 km/h (2 Bft)
12.02.2015 06:02 0,1 C -1,7 C 95 % 1021,3 hPa 0,0 l/m 0 min 0 min 0 W/m 10,5 km/h (2 Bft)
12.02.2015 06:06 0,1 C -1,7 C 95 % 1021,2 hPa 0,0 l/m 0 min 0 min 0 W/m 14,6 km/h (3 Bft)
12.02.2015 06:08 0,1 C -1,7 C 95 % 1021,3 hPa 0,0 l/m 0 min 0 min 0 W/m 8,4 km/h (2 Bft)
12.02.2015 06:10 0,1 C -1,7 C 95 % 1021,2 hPa 0,0 l/m 0 min 0 min 0 W/m 10,5 km/h (2 Bft)
12.02.2015 06:12 0,1 C -1,7 C 95 % 1021,2 hPa 0,0 l/m 0 min 0 min 0 W/m 8,4 km/h (2 Bft)
12.02.2015 06:14 0,1 C -1,7 C 95 % 1021,2 hPa 0,0 l/m 0 min 0 min 0 W/m 8,4 km/h (2 Bft)
12.02.2015 06:16 0,1 C -1,7 C 95 % 1021,2 hPa 0,0 l/m 0 min 0 min 0 W/m 8,4 km/h (2 Bft)
12.02.2015 06:18 0,1 C -1,7 C 95 % 1021,2 hPa 0,0 l/m 0 min 0 min 0 W/m 12,6 km/h (3 Bft)
12.02.2015 06:20 0,1 C -1,7 C 95 % 1021,1 hPa 0,0 l/m 0 min 0 min 0 W/m 10,5 km/h (2 Bft)
12.02.2015 06:22 0,1 C -1,7 C 95 % 1021,2 hPa 0,0 l/m 0 min 0 min 0 W/m 12,6 km/h (3 Bft)
12.02.2015 06:24 0,1 C -1,7 C 95 % 1021,2 hPa 0,0 l/m 0 min 0 min 0 W/m 12,6 km/h (3 Bft)
12.02.2015 06:26 0,1 C -1,7 C 95 % 1021,2 hPa 0,0 l/m 0 min 0 min 0 W/m 12,6 km/h (3 Bft)
12.02.2015 06:28 0,1 C -1,7 C 95 % 1021,2 hPa 0,0 l/m 0 min 0 min 0 W/m 8,4 km/h (2 Bft)
12.02.2015 06:30 0,1 C -1,7 C 95 % 1021,1 hPa 0,0 l/m 0 min 0 min 0 W/m 12,6 km/h (3 Bft)
12.02.2015 06:32 0,1 C -1,7 C 95 % 1021,1 hPa 0,0 l/m 0 min 0 min 0 W/m 10,5 km/h (2 Bft)
12.02.2015 06:34 0,1 C -1,7 C 95 % 1021,1 hPa 0,0 l/m 0 min 0 min 0 W/m 14,6 km/h (3 Bft)
12.02.2015 06:36 0,1 C -1,7 C 96 % 1021,2 hPa 0,0 l/m 0 min 0 min 0 W/m 14,6 km/h (3 Bft)
12.02.2015 06:38 0,1 C -1,7 C 96 % 1021,1 hPa 0,0 l/m 0 min 0 min 0 W/m 10,5 km/h (2 Bft)
12.02.2015 06:40 0,1 C -1,7 C 96 % 1021,2 hPa 0,0 l/m 0 min 0 min 0 W/m 10,5 km/h (2 Bft)
12.02.2015 06:42 0,1 C -1,7 C 96 % 1021,1 hPa 0,0 l/m 0 min 0 min 0 W/m 12,6 km/h (3 Bft)
12.02.2015 06:44 0,1 C -1,7 C 96 % 1021,1 hPa 0,0 l/m 0 min 0 min 0 W/m 10,5 km/h (2 Bft)
12.02.2015 06:46 0,1 C -1,7 C 96 % 1021,2 hPa 0,0 l/m 0 min 0 min 0 W/m 10,5 km/h (2 Bft)
12.02.2015 06:48 0,2 C -1,7 C 96 % 1021,1 hPa 0,0 l/m 0 min 0 min 0 W/m 8,4 km/h (2 Bft)
12.02.2015 06:50 0,1 C -1,7 C 96 % 1021,1 hPa 0,0 l/m 0 min 0 min 0 W/m 10,5 km/h (2 Bft)
12.02.2015 06:52 0,2 C -1,7 C 96 % 1021,1 hPa 0,0 l/m 0 min 0 min 0 W/m 8,4 km/h (2 Bft)
12.02.2015 06:54 0,2 C -1,7 C 96 % 1021,2 hPa 0,0 l/m 0 min 0 min 0 W/m 12,6 km/h (3 Bft)
12.02.2015 06:56 0,2 C -1,7 C 96 % 1021,2 hPa 0,0 l/m 0 min 0 min 0 W/m 8,4 km/h (2 Bft)
12.02.2015 06:58 0,2 C -1,7 C 96 % 1021,2 hPa 0,0 l/m 0 min 0 min 0 W/m 12,6 km/h (3 Bft)
12.02.2015 07:00 0,2 C -1,7 C 96 % 1021,3 hPa 0,0 l/m 0 min 0 min 0 W/m 10,5 km/h (2 Bft)
12.02.2015 07:02 0,2 C -1,7 C 96 % 1021,3 hPa 0,0 l/m 0 min 0 min 0 W/m 12,6 km/h (3 Bft)
12.02.2015 07:04 0,1 C -1,7 C 96 % 1021,4 hPa 0,0 l/m 0 min 0 min 0 W/m 10,5 km/h (2 Bft)
12.02.2015 07:06 0,2 C -1,7 C 96 % 1021,4 hPa 0,0 l/m 0 min 0 min 0 W/m 14,6 km/h (3 Bft)
12.02.2015 07:08 0,2 C -1,7 C 96 % 1021,4 hPa 0,0 l/m 0 min 0 min 0 W/m 8,4 km/h (2 Bft)
12.02.2015 07:10 0,1 C -1,7 C 96 % 1021,4 hPa 0,0 l/m 0 min 0 min 0 W/m 8,4 km/h (2 Bft)
12.02.2015 07:12 0,1 C -1,7 C 96 % 1021,4 hPa 0,0 l/m 0 min 0 min 0 W/m 12,6 km/h (3 Bft)
12.02.2015 07:14 0,1 C -1,7 C 96 % 1021,4 hPa 0,0 l/m 0 min 0 min 0 W/m 6,3 km/h (2 Bft)
12.02.2015 07:16 0,1 C -1,7 C 96 % 1021,4 hPa 0,0 l/m 0 min 0 min 0 W/m 8,4 km/h (2 Bft)
12.02.2015 07:18 0,1 C -1,7 C 96 % 1021,4 hPa 0,0 l/m 0 min 0 min 0 W/m 8,4 km/h (2 Bft)
12.02.2015 07:20 0,1 C -1,7 C 96 % 1021,4 hPa 0,0 l/m 0 min 0 min 0 W/m 12,6 km/h (3 Bft)
12.02.2015 07:22 0,1 C -1,7 C 96 % 1021,4 hPa 0,0 l/m 0 min 0 min 0 W/m 6,3 km/h (2 Bft)
12.02.2015 07:24 0,1 C -1,7 C 96 % 1021,4 hPa 0,0 l/m 0 min 0 min 0 W/m 8,4 km/h (2 Bft)
12.02.2015 07:26 0,1 C -1,7 C 96 % 1021,5 hPa 0,0 l/m 0 min 0 min 0 W/m 8,4 km/h (2 Bft)
12.02.2015 07:28 0,1 C -1,7 C 96 % 1021,5 hPa 0,0 l/m 0 min 0 min 0 W/m 10,5 km/h (2 Bft)
12.02.2015 07:30 0,1 C -1,7 C 96 % 1021,5 hPa 0,0 l/m 0 min 0 min 0 W/m 10,5 km/h (2 Bft)
12.02.2015 07:32 0,1 C -1,7 C 96 % 1021,5 hPa 0,0 l/m 0 min 0 min 0 W/m 8,4 km/h (2 Bft)
12.02.2015 07:34 0,1 C -1,7 C 96 % 1021,5 hPa 0,0 l/m 0 min 0 min 0 W/m 8,4 km/h (2 Bft)
12.02.2015 07:36 0,1 C -1,7 C 96 % 1021,5 hPa 0,0 l/m 0 min 0 min 0 W/m 8,4 km/h (2 Bft)
12.02.2015 07:38 0,1 C -1,7 C 96 % 1021,5 hPa 0,0 l/m 0 min 0 min 0 W/m 6,3 km/h (2 Bft)
12.02.2015 07:40 0,1 C -1,7 C 96 % 1021,5 hPa 0,0 l/m 0 min 0 min 0 W/m 6,3 km/h (2 Bft)
12.02.2015 07:42 0,1 C -1,7 C 96 % 1021,5 hPa 0,0 l/m 0 min 0 min 0 W/m 12,6 km/h (3 Bft)
12.02.2015 07:44 0,0 C -1,7 C 96 % 1021,5 hPa 0,0 l/m 0 min 0 min 0 W/m 10,5 km/h (2 Bft)
12.02.2015 07:46 0,0 C -1,7 C 96 % 1021,5 hPa 0,0 l/m 0 min 0 min 0 W/m 10,5 km/h (2 Bft)
12.02.2015 07:48 0,0 C -1,7 C 96 % 1021,5 hPa 0,0 l/m 0 min 0 min 5 W/m 8,4 km/h (2 Bft)
12.02.2015 07:50 0,0 C -1,7 C 96 % 1021,5 hPa 0,0 l/m 0 min 0 min 5 W/m 8,4 km/h (2 Bft)
12.02.2015 07:52 0,0 C -1,7 C 96 % 1021,5 hPa 0,0 l/m 0 min 0 min 5 W/m 8,4 km/h (2 Bft)
12.02.2015 07:54 0,0 C -1,7 C 96 % 1021,5 hPa 0,0 l/m 0 min 0 min 7 W/m 10,5 km/h (2 Bft)
12.02.2015 07:56 0,0 C -1,7 C 96 % 1021,5 hPa 0,0 l/m 0 min 0 min 7 W/m 10,5 km/h (2 Bft)
12.02.2015 07:58 0,0 C -1,7 C 96 % 1021,5 hPa 0,0 l/m 0 min 0 min 8 W/m 10,5 km/h (2 Bft)
12.02.2015 08:00 0,0 C -1,7 C 96 % 1021,5 hPa 0,0 l/m 0 min 0 min 9 W/m 8,4 km/h (2 Bft)
12.02.2015 08:02 0,0 C -1,7 C 96 % 1021,5 hPa 0,0 l/m 0 min 0 min 10 W/m 8,4 km/h (2 Bft)
12.02.2015 08:04 0,0 C -1,7 C 96 % 1021,5 hPa 0,0 l/m 0 min 0 min 11 W/m 10,5 km/h (2 Bft)
12.02.2015 08:06 0,0 C -1,7 C 96 % 1021,5 hPa 0,0 l/m 2 min 0 min 12 W/m 10,5 km/h (2 Bft)
12.02.2015 08:08 0,0 C -1,7 C 96 % 1021,5 hPa 0,0 l/m 2 min 0 min 13 W/m 10,5 km/h (2 Bft)
12.02.2015 08:10 0,0 C -1,7 C 96 % 1021,5 hPa 0,0 l/m 2 min 0 min 15 W/m 10,5 km/h (2 Bft)
12.02.2015 08:12 0,0 C -1,7 C 96 % 1021,5 hPa 0,0 l/m 2 min 0 min 16 W/m 8,4 km/h (2 Bft)
12.02.2015 08:14 0,0 C -1,7 C 96 % 1021,6 hPa 0,0 l/m 0 min 0 min 18 W/m 8,4 km/h (2 Bft)
12.02.2015 08:16 0,0 C -1,7 C 96 % 1021,5 hPa 0,0 l/m 0 min 0 min 19 W/m 10,5 km/h (2 Bft)
12.02.2015 08:18 0,0 C -1,7 C 96 % 1021,6 hPa 0,0 l/m 0 min 0 min 20 W/m 8,4 km/h (2 Bft)
12.02.2015 08:20 0,1 C -1,7 C 96 % 1021,6 hPa 0,0 l/m 0 min 0 min 22 W/m 10,5 km/h (2 Bft)
12.02.2015 08:22 0,1 C -1,1 C 96 % 1021,5 hPa 0,0 l/m 0 min 0 min 25 W/m 10,5 km/h (2 Bft)
12.02.2015 08:24 0,1 C -1,1 C 96 % 1021,5 hPa 0,0 l/m 0 min 0 min 26 W/m 8,4 km/h (2 Bft)
12.02.2015 08:26 0,1 C -1,1 C 96 % 1021,6 hPa 0,0 l/m 0 min 0 min 29 W/m 8,4 km/h (2 Bft)
12.02.2015 08:28 0,1 C -1,1 C 96 % 1021,5 hPa 0,0 l/m 0 min 0 min 32 W/m 10,5 km/h (2 Bft)
12.02.2015 08:30 0,1 C -1,1 C 96 % 1021,6 hPa 0,0 l/m 0 min 0 min 34 W/m 10,5 km/h (2 Bft)
12.02.2015 08:32 0,1 C -1,1 C 96 % 1021,5 hPa 0,0 l/m 0 min 0 min 38 W/m 8,4 km/h (2 Bft)
12.02.2015 08:34 0,1 C -1,1 C 96 % 1021,6 hPa 0,0 l/m 0 min 0 min 41 W/m 8,4 km/h (2 Bft)
12.02.2015 08:36 0,1 C -1,1 C 96 % 1021,6 hPa 0,0 l/m 2 min 0 min 45 W/m 8,4 km/h (2 Bft)
12.02.2015 08:38 0,1 C -1,1 C 96 % 1021,6 hPa 0,0 l/m 0 min 0 min 47 W/m 6,3 km/h (2 Bft)
12.02.2015 08:40 0,2 C -1,1 C 96 % 1021,6 hPa 0,0 l/m 2 min 0 min 52 W/m 8,4 km/h (2 Bft)
12.02.2015 08:42 0,2 C -1,1 C 96 % 1021,7 hPa 0,0 l/m 2 min 0 min 54 W/m 10,5 km/h (2 Bft)
12.02.2015 08:44 0,2 C -1,1 C 96 % 1021,7 hPa 0,0 l/m 2 min 0 min 58 W/m 8,4 km/h (2 Bft)
12.02.2015 08:46 0,2 C -1,1 C 96 % 1021,7 hPa 0,0 l/m 2 min 0 min 61 W/m 10,5 km/h (2 Bft)
12.02.2015 08:48 0,2 C -1,1 C 96 % 1021,7 hPa 0,0 l/m 2 min 0 min 64 W/m 8,4 km/h (2 Bft)
12.02.2015 08:50 0,2 C -1,1 C 96 % 1021,7 hPa 0,0 l/m 2 min 0 min 69 W/m 8,4 km/h (2 Bft)
12.02.2015 08:52 0,2 C -1,1 C 96 % 1021,7 hPa 0,0 l/m 2 min 0 min 70 W/m 8,4 km/h (2 Bft)
12.02.2015 08:54 0,2 C -1,1 C 96 % 1021,7 hPa 0,0 l/m 2 min 0 min 75 W/m 8,4 km/h (2 Bft)
12.02.2015 08:56 0,2 C -1,1 C 96 % 1021,6 hPa 0,0 l/m 2 min 0 min 78 W/m 10,5 km/h (2 Bft)
12.02.2015 08:58 0,2 C -1,1 C 96 % 1021,7 hPa 0,0 l/m 2 min 0 min 82 W/m 8,4 km/h (2 Bft)
12.02.2015 09:00 0,2 C -1,1 C 96 % 1021,7 hPa 0,0 l/m 2 min 0 min 85 W/m 8,4 km/h (2 Bft)
12.02.2015 09:02 0,3 C -0,6 C 96 % 1021,7 hPa 0,0 l/m 2 min 0 min 91 W/m 8,4 km/h (2 Bft)
12.02.2015 09:04 0,3 C -0,6 C 96 % 1021,7 hPa 0,0 l/m 2 min 0 min 96 W/m 8,4 km/h (2 Bft)
12.02.2015 09:06 0,3 C -0,6 C 96 % 1021,7 hPa 0,0 l/m 2 min 0 min 97 W/m 8,4 km/h (2 Bft)
12.02.2015 09:08 0,3 C -0,6 C 96 % 1021,8 hPa 0,0 l/m 2 min 0 min 102 W/m 6,3 km/h (2 Bft)
12.02.2015 09:10 0,4 C -0,6 C 96 % 1021,8 hPa 0,0 l/m 2 min 0 min 108 W/m 6,3 km/h (2 Bft)
12.02.2015 09:12 0,4 C -0,6 C 96 % 1021,7 hPa 0,0 l/m 2 min 0 min 112 W/m 8,4 km/h (2 Bft)
12.02.2015 09:14 0,4 C -0,6 C 96 % 1021,7 hPa 0,0 l/m 2 min 0 min 116 W/m 6,3 km/h (2 Bft)
12.02.2015 09:16 0,4 C -0,6 C 96 % 1021,7 hPa 0,0 l/m 2 min 0 min 122 W/m 8,4 km/h (2 Bft)
12.02.2015 09:18 0,5 C -0,6 C 96 % 1021,7 hPa 0,0 l/m 2 min 0 min 125 W/m 12,6 km/h (3 Bft)
12.02.2015 09:20 0,5 C -0,6 C 96 % 1021,7 hPa 0,0 l/m 2 min 0 min 129 W/m 12,6 km/h (3 Bft)
12.02.2015 09:22 0,5 C 0,0 C 96 % 1021,7 hPa 0,0 l/m 2 min 0 min 134 W/m 8,4 km/h (2 Bft)
12.02.2015 09:24 0,5 C 0,0 C 96 % 1021,7 hPa 0,0 l/m 2 min 0 min 137 W/m 8,4 km/h (2 Bft)
12.02.2015 09:26 0,6 C 0,0 C 96 % 1021,8 hPa 0,0 l/m 2 min 0 min 141 W/m 16,7 km/h (3 Bft)
12.02.2015 09:28 0,6 C 0,0 C 96 % 1021,9 hPa 0,0 l/m 2 min 0 min 143 W/m 12,6 km/h (3 Bft)
12.02.2015 09:30 0,7 C 0,0 C 96 % 1021,8 hPa 0,0 l/m 2 min 0 min 150 W/m 12,6 km/h (3 Bft)
12.02.2015 09:32 0,7 C 0,0 C 97 % 1021,8 hPa 0,0 l/m 2 min 0 min 155 W/m 14,6 km/h (3 Bft)
12.02.2015 09:34 0,8 C 0,0 C 97 % 1021,7 hPa 0,0 l/m 2 min 0 min 158 W/m 14,6 km/h (3 Bft)
12.02.2015 09:36 0,8 C 0,0 C 97 % 1021,8 hPa 0,0 l/m 2 min 0 min 161 W/m 14,6 km/h (3 Bft)
12.02.2015 09:38 0,9 C 0,0 C 96 % 1021,7 hPa 0,0 l/m 2 min 0 min 167 W/m 16,7 km/h (3 Bft)
12.02.2015 09:40 0,9 C 0,0 C 96 % 1021,8 hPa 0,0 l/m 2 min 0 min 173 W/m 14,6 km/h (3 Bft)
12.02.2015 09:42 1,1 C 0,6 C 97 % 1021,8 hPa 0,0 l/m 2 min 0 min 179 W/m 12,6 km/h (3 Bft)
12.02.2015 09:44 1,1 C 0,6 C 97 % 1021,8 hPa 0,0 l/m 2 min 0 min 181 W/m 16,7 km/h (3 Bft)
12.02.2015 09:46 1,2 C 0,6 C 97 % 1021,8 hPa 0,0 l/m 2 min 0 min 183 W/m 10,5 km/h (2 Bft)
12.02.2015 09:48 1,3 C 0,6 C 97 % 1021,8 hPa 0,0 l/m 2 min 0 min 192 W/m 14,6 km/h (3 Bft)
12.02.2015 09:50 1,4 C 0,6 C 97 % 1021,9 hPa 0,0 l/m 2 min 0 min 196 W/m 18,8 km/h (3 Bft)
12.02.2015 09:52 1,4 C 0,6 C 97 % 1021,8 hPa 0,0 l/m 2 min 0 min 196 W/m 16,7 km/h (3 Bft)
12.02.2015 09:54 1,6 C 0,6 C 97 % 1021,8 hPa 0,0 l/m 2 min 0 min 197 W/m 14,6 km/h (3 Bft)
12.02.2015 09:56 1,6 C 0,6 C 97 % 1021,8 hPa 0,0 l/m 2 min 0 min 200 W/m 16,7 km/h (3 Bft)
12.02.2015 09:58 1,7 C 0,6 C 97 % 1021,9 hPa 0,0 l/m 2 min 0 min 205 W/m 16,7 km/h (3 Bft)
12.02.2015 10:00 1,8 C 1,1 C 97 % 1021,9 hPa 0,0 l/m 2 min 0 min 208 W/m 16,7 km/h (3 Bft)
12.02.2015 10:02 1,9 C 1,1 C 97 % 1021,8 hPa 0,0 l/m 2 min 0 min 216 W/m 16,7 km/h (3 Bft)
12.02.2015 10:04 1,9 C 1,1 C 97 % 1021,9 hPa 0,0 l/m 2 min 0 min 221 W/m 14,6 km/h (3 Bft)
12.02.2015 10:06 2,0 C 1,1 C 97 % 1021,9 hPa 0,0 l/m 2 min 0 min 223 W/m 20,9 km/h (4 Bft)
12.02.2015 10:08 2,1 C 1,1 C 97 % 1021,8 hPa 0,0 l/m 2 min 0 min 231 W/m 18,8 km/h (3 Bft)
12.02.2015 10:10 2,1 C 1,1 C 97 % 1021,8 hPa 0,0 l/m 2 min 0 min 234 W/m 16,7 km/h (3 Bft)
12.02.2015 10:12 2,2 C 1,1 C 97 % 1021,9 hPa 0,0 l/m 2 min 0 min 240 W/m 16,7 km/h (3 Bft)
12.02.2015 10:14 2,2 C 1,1 C 97 % 1021,9 hPa 0,0 l/m 2 min 0 min 245 W/m 18,8 km/h (3 Bft)
12.02.2015 10:16 2,3 C 1,1 C 97 % 1022,0 hPa 0,0 l/m 2 min 0 min 247 W/m 16,7 km/h (3 Bft)
12.02.2015 10:18 2,4 C 1,1 C 97 % 1022,0 hPa 0,0 l/m 2 min 0 min 246 W/m 20,9 km/h (4 Bft)
12.02.2015 10:20 2,4 C 1,1 C 97 % 1022,0 hPa 0,0 l/m 2 min 0 min 248 W/m 16,7 km/h (3 Bft)
12.02.2015 10:22 2,5 C 1,7 C 97 % 1021,9 hPa 0,0 l/m 2 min 0 min 253 W/m 20,9 km/h (4 Bft)
12.02.2015 10:24 2,6 C 1,7 C 96 % 1021,9 hPa 0,0 l/m 2 min 0 min 258 W/m 16,7 km/h (3 Bft)
12.02.2015 10:26 2,6 C 1,7 C 96 % 1021,9 hPa 0,0 l/m 2 min 0 min 260 W/m 14,6 km/h (3 Bft)
12.02.2015 10:28 2,7 C 1,7 C 96 % 1021,9 hPa 0,0 l/m 2 min 0 min 263 W/m 18,8 km/h (3 Bft)
12.02.2015 10:30 2,8 C 1,7 C 96 % 1022,0 hPa 0,0 l/m 2 min 0 min 266 W/m 14,6 km/h (3 Bft)
12.02.2015 10:32 2,8 C 1,7 C 96 % 1022,0 hPa 0,0 l/m 2 min 0 min 268 W/m 14,6 km/h (3 Bft)
12.02.2015 10:34 2,9 C 1,7 C 96 % 1021,9 hPa 0,0 l/m 2 min 0 min 260 W/m 16,7 km/h (3 Bft)
12.02.2015 10:36 2,9 C 1,7 C 96 % 1021,9 hPa 0,0 l/m 2 min 0 min 280 W/m 16,7 km/h (3 Bft)
12.02.2015 10:38 3,0 C 1,7 C 96 % 1021,9 hPa 0,0 l/m 2 min 0 min 277 W/m 16,7 km/h (3 Bft)
12.02.2015 10:40 3,1 C 1,7 C 96 % 1021,9 hPa 0,0 l/m 2 min 0 min 281 W/m 23,0 km/h (4 Bft)
12.02.2015 10:42 3,1 C 1,7 C 95 % 1021,9 hPa 0,0 l/m 2 min 0 min 210 W/m 14,6 km/h (3 Bft)
12.02.2015 10:44 3,1 C 1,7 C 95 % 1021,9 hPa 0,0 l/m 2 min 0 min 286 W/m 14,6 km/h (3 Bft)
12.02.2015 10:46 3,2 C 2,2 C 95 % 1021,8 hPa 0,0 l/m 2 min 0 min 302 W/m 16,7 km/h (3 Bft)
12.02.2015 10:48 3,2 C 2,2 C 95 % 1021,8 hPa 0,0 l/m 2 min 0 min 201 W/m 20,9 km/h (4 Bft)
12.02.2015 10:50 3,3 C 2,2 C 94 % 1021,7 hPa 0,0 l/m 0 min 0 min 172 W/m 12,6 km/h (3 Bft)
12.02.2015 10:52 3,3 C 2,2 C 94 % 1021,8 hPa 0,0 l/m 2 min 0 min 282 W/m 14,6 km/h (3 Bft)
12.02.2015 10:54 3,4 C 2,2 C 94 % 1021,8 hPa 0,0 l/m 2 min 0 min 303 W/m 18,8 km/h (3 Bft)
12.02.2015 10:56 3,4 C 2,2 C 94 % 1021,7 hPa 0,0 l/m 2 min 0 min 315 W/m 16,7 km/h (3 Bft)
12.02.2015 10:58 3,6 C 2,2 C 93 % 1021,7 hPa 0,0 l/m 2 min 0 min 309 W/m 14,6 km/h (3 Bft)
12.02.2015 11:00 3,6 C 2,8 C 93 % 1021,7 hPa 0,0 l/m 2 min 0 min 316 W/m 16,7 km/h (3 Bft)
12.02.2015 11:02 3,7 C 2,8 C 93 % 1021,7 hPa 0,0 l/m 2 min 0 min 312 W/m 18,8 km/h (3 Bft)
12.02.2015 11:04 3,8 C 2,8 C 93 % 1021,7 hPa 0,0 l/m 2 min 0 min 323 W/m 20,9 km/h (4 Bft)
12.02.2015 11:06 3,9 C 2,8 C 93 % 1021,7 hPa 0,0 l/m 2 min 0 min 326 W/m 23,0 km/h (4 Bft)
12.02.2015 11:08 3,9 C 2,8 C 92 % 1021,7 hPa 0,0 l/m 2 min 0 min 323 W/m 18,8 km/h (3 Bft)
12.02.2015 11:10 4,0 C 2,8 C 92 % 1021,7 hPa 0,0 l/m 2 min 0 min 328 W/m 20,9 km/h (4 Bft)
12.02.2015 11:12 4,1 C 2,8 C 91 % 1021,8 hPa 0,0 l/m 2 min 0 min 335 W/m 27,2 km/h (4 Bft)
12.02.2015 11:14 4,1 C 2,8 C 91 % 1021,8 hPa 0,0 l/m 2 min 0 min 337 W/m 25,1 km/h (4 Bft)
12.02.2015 11:16 4,1 C 2,8 C 91 % 1021,7 hPa 0,0 l/m 2 min 0 min 334 W/m 18,8 km/h (3 Bft)
12.02.2015 11:18 4,2 C 2,8 C 90 % 1021,8 hPa 0,0 l/m 2 min 0 min 341 W/m 12,6 km/h (3 Bft)
12.02.2015 11:20 4,3 C 2,8 C 90 % 1021,8 hPa 0,0 l/m 2 min 0 min 347 W/m 20,9 km/h (4 Bft)
12.02.2015 11:22 4,4 C 2,8 C 89 % 1021,8 hPa 0,0 l/m 2 min 0 min 349 W/m 20,9 km/h (4 Bft)
12.02.2015 11:24 4,4 C 3,3 C 89 % 1021,8 hPa 0,0 l/m 2 min 0 min 342 W/m 23,0 km/h (4 Bft)
12.02.2015 11:26 4,5 C 3,3 C 89 % 1021,8 hPa 0,0 l/m 2 min 0 min 353 W/m 16,7 km/h (3 Bft)
12.02.2015 11:28 4,6 C 3,3 C 89 % 1021,7 hPa 0,0 l/m 2 min 0 min 364 W/m 18,8 km/h (3 Bft)
12.02.2015 11:30 4,6 C 3,3 C 88 % 1021,7 hPa 0,0 l/m 2 min 0 min 366 W/m 18,8 km/h (3 Bft)
12.02.2015 11:32 4,7 C 3,3 C 88 % 1021,7 hPa 0,0 l/m 2 min 0 min 368 W/m 20,9 km/h (4 Bft)
12.02.2015 11:34 4,7 C 3,3 C 88 % 1021,7 hPa 0,0 l/m 2 min 0 min 370 W/m 16,7 km/h (3 Bft)
12.02.2015 11:36 4,8 C 3,3 C 88 % 1021,7 hPa 0,0 l/m 2 min 0 min 365 W/m 23,0 km/h (4 Bft)
12.02.2015 11:38 4,8 C 3,3 C 87 % 1021,7 hPa 0,0 l/m 2 min 0 min 369 W/m 23,0 km/h (4 Bft)
12.02.2015 11:40 4,9 C 3,3 C 87 % 1021,7 hPa 0,0 l/m 2 min 0 min 365 W/m 18,8 km/h (3 Bft)
12.02.2015 11:42 5,0 C 3,3 C 87 % 1021,7 hPa 0,0 l/m 2 min 0 min 375 W/m 10,5 km/h (2 Bft)
12.02.2015 11:44 5,1 C 3,3 C 86 % 1021,6 hPa 0,0 l/m 2 min 0 min 368 W/m 18,8 km/h (3 Bft)
12.02.2015 11:46 5,1 C 3,9 C 86 % 1021,7 hPa 0,0 l/m 2 min 0 min 366 W/m 20,9 km/h (4 Bft)
12.02.2015 11:48 5,2 C 3,9 C 86 % 1021,6 hPa 0,0 l/m 2 min 0 min 376 W/m 25,1 km/h (4 Bft)
12.02.2015 11:50 5,2 C 3,9 C 86 % 1021,6 hPa 0,0 l/m 2 min 0 min 370 W/m 18,8 km/h (3 Bft)
12.02.2015 11:52 5,3 C 3,9 C 85 % 1021,6 hPa 0,0 l/m 2 min 0 min 365 W/m 20,9 km/h (4 Bft)
12.02.2015 11:54 5,4 C 3,9 C 85 % 1021,6 hPa 0,0 l/m 2 min 0 min 364 W/m 20,9 km/h (4 Bft)
12.02.2015 11:56 5,4 C 3,9 C 85 % 1021,6 hPa 0,0 l/m 2 min 0 min 368 W/m 25,1 km/h (4 Bft)
12.02.2015 11:58 5,4 C 3,9 C 85 % 1021,6 hPa 0,0 l/m 2 min 0 min 376 W/m 18,8 km/h (3 Bft)
12.02.2015 12:00 5,5 C 3,9 C 84 % 1021,5 hPa 0,0 l/m 2 min 0 min 380 W/m 20,9 km/h (4 Bft)
12.02.2015 12:02 5,6 C 3,9 C 84 % 1021,5 hPa 0,0 l/m 2 min 0 min 375 W/m 18,8 km/h (3 Bft)
12.02.2015 12:04 5,6 C 3,9 C 84 % 1021,5 hPa 0,0 l/m 2 min 0 min 376 W/m 16,7 km/h (3 Bft)
12.02.2015 12:06 5,7 C 3,9 C 84 % 1021,5 hPa 0,0 l/m 2 min 0 min 384 W/m 18,8 km/h (3 Bft)
12.02.2015 12:08 5,7 C 3,9 C 84 % 1021,5 hPa 0,0 l/m 2 min 0 min 386 W/m 20,9 km/h (4 Bft)
12.02.2015 12:10 5,8 C 3,9 C 83 % 1021,5 hPa 0,0 l/m 2 min 0 min 384 W/m 14,6 km/h (3 Bft)
12.02.2015 12:12 5,8 C 3,9 C 83 % 1021,5 hPa 0,0 l/m 2 min 0 min 387 W/m 20,9 km/h (4 Bft)
12.02.2015 12:14 5,8 C 4,4 C 83 % 1021,5 hPa 0,0 l/m 2 min 0 min 399 W/m 16,7 km/h (3 Bft)
12.02.2015 12:16 5,9 C 4,4 C 83 % 1021,4 hPa 0,0 l/m 2 min 0 min 395 W/m 16,7 km/h (3 Bft)
12.02.2015 12:18 6,0 C 4,4 C 83 % 1021,4 hPa 0,0 l/m 2 min 0 min 387 W/m 14,6 km/h (3 Bft)
12.02.2015 12:20 6,1 C 4,4 C 83 % 1021,4 hPa 0,0 l/m 2 min 0 min 392 W/m 18,8 km/h (3 Bft)
12.02.2015 12:22 6,1 C 4,4 C 82 % 1021,3 hPa 0,0 l/m 2 min 0 min 390 W/m 20,9 km/h (4 Bft)
12.02.2015 12:24 6,2 C 4,4 C 83 % 1021,3 hPa 0,0 l/m 2 min 0 min 395 W/m 25,1 km/h (4 Bft)
12.02.2015 12:26 6,2 C 4,4 C 82 % 1021,3 hPa 0,0 l/m 2 min 0 min 406 W/m 18,8 km/h (3 Bft)
12.02.2015 12:28 6,3 C 4,4 C 82 % 1021,3 hPa 0,0 l/m 2 min 0 min 396 W/m 18,8 km/h (3 Bft)
12.02.2015 12:30 6,3 C 4,4 C 82 % 1021,3 hPa 0,0 l/m 2 min 0 min 392 W/m 14,6 km/h (3 Bft)
12.02.2015 12:32 6,4 C 5,0 C 82 % 1021,3 hPa 0,0 l/m 2 min 0 min 404 W/m 12,6 km/h (3 Bft)
12.02.2015 12:34 6,4 C 4,4 C 82 % 1021,2 hPa 0,0 l/m 2 min 0 min 418 W/m 23,0 km/h (4 Bft)
12.02.2015 12:36 6,4 C 4,4 C 82 % 1021,2 hPa 0,0 l/m 2 min 0 min 413 W/m 20,9 km/h (4 Bft)
12.02.2015 12:38 6,5 C 4,4 C 82 % 1021,2 hPa 0,0 l/m 2 min 0 min 403 W/m 25,1 km/h (4 Bft)
12.02.2015 12:40 6,6 C 5,0 C 81 % 1021,2 hPa 0,0 l/m 2 min 0 min 403 W/m 12,6 km/h (3 Bft)
12.02.2015 12:42 6,6 C 5,0 C 81 % 1021,2 hPa 0,0 l/m 2 min 0 min 406 W/m 16,7 km/h (3 Bft)
12.02.2015 12:44 6,6 C 5,0 C 81 % 1021,2 hPa 0,0 l/m 2 min 0 min 402 W/m 20,9 km/h (4 Bft)
12.02.2015 12:46 6,7 C 5,0 C 81 % 1021,1 hPa 0,0 l/m 2 min 0 min 395 W/m 18,8 km/h (3 Bft)
12.02.2015 12:48 6,7 C 5,0 C 81 % 1021,2 hPa 0,0 l/m 2 min 0 min 384 W/m 23,0 km/h (4 Bft)
12.02.2015 12:50 6,7 C 5,0 C 80 % 1021,2 hPa 0,0 l/m 2 min 0 min 399 W/m 20,9 km/h (4 Bft)
12.02.2015 12:52 6,8 C 5,0 C 80 % 1021,1 hPa 0,0 l/m 2 min 0 min 393 W/m 16,7 km/h (3 Bft)
12.02.2015 12:54 6,8 C 5,0 C 80 % 1021,1 hPa 0,0 l/m 2 min 0 min 392 W/m 14,6 km/h (3 Bft)
12.02.2015 12:56 6,8 C 5,0 C 80 % 1021,1 hPa 0,0 l/m 2 min 0 min 393 W/m 18,8 km/h (3 Bft)
12.02.2015 12:58 6,8 C 5,0 C 80 % 1021,0 hPa 0,0 l/m 2 min 0 min 399 W/m 18,8 km/h (3 Bft)
12.02.2015 13:00 6,9 C 5,0 C 80 % 1021,0 hPa 0,0 l/m 2 min 0 min 400 W/m 14,6 km/h (3 Bft)
12.02.2015 13:02 6,9 C 5,0 C 80 % 1021,0 hPa 0,0 l/m 2 min 0 min 389 W/m 16,7 km/h (3 Bft)
12.02.2015 13:04 6,9 C 5,0 C 80 % 1021,0 hPa 0,0 l/m 2 min 0 min 396 W/m 29,3 km/h (5 Bft)
12.02.2015 13:06 7,0 C 5,0 C 80 % 1021,0 hPa 0,0 l/m 2 min 0 min 390 W/m 18,8 km/h (3 Bft)
12.02.2015 13:08 7,0 C 5,0 C 80 % 1021,0 hPa 0,0 l/m 2 min 0 min 387 W/m 25,1 km/h (4 Bft)
12.02.2015 13:10 7,1 C 5,0 C 80 % 1021,0 hPa 0,0 l/m 2 min 0 min 380 W/m 23,0 km/h (4 Bft)
12.02.2015 13:12 7,1 C 5,0 C 79 % 1020,9 hPa 0,0 l/m 2 min 0 min 398 W/m 27,2 km/h (4 Bft)
12.02.2015 13:14 7,1 C 5,0 C 80 % 1020,9 hPa 0,0 l/m 2 min 0 min 395 W/m 20,9 km/h (4 Bft)
12.02.2015 13:16 7,2 C 5,0 C 80 % 1020,9 hPa 0,0 l/m 2 min 0 min 404 W/m 18,8 km/h (3 Bft)
12.02.2015 13:18 7,2 C 5,0 C 80 % 1020,8 hPa 0,0 l/m 2 min 0 min 399 W/m 18,8 km/h (3 Bft)
12.02.2015 13:20 7,2 C 5,0 C 79 % 1020,8 hPa 0,0 l/m 2 min 0 min 388 W/m 18,8 km/h (3 Bft)
12.02.2015 13:22 7,3 C 5,6 C 79 % 1020,8 hPa 0,0 l/m 2 min 0 min 339 W/m 16,7 km/h (3 Bft)
12.02.2015 13:24 7,3 C 5,6 C 79 % 1020,8 hPa 0,0 l/m 2 min 0 min 351 W/m 18,8 km/h (3 Bft)
12.02.2015 13:26 7,4 C 5,6 C 79 % 1020,7 hPa 0,0 l/m 2 min 0 min 358 W/m 12,6 km/h (3 Bft)
12.02.2015 13:28 7,4 C 5,6 C 79 % 1020,7 hPa 0,0 l/m 2 min 0 min 371 W/m 14,6 km/h (3 Bft)
12.02.2015 13:30 7,4 C 5,6 C 79 % 1020,7 hPa 0,0 l/m 2 min 0 min 378 W/m 16,7 km/h (3 Bft)
12.02.2015 13:32 7,4 C 5,6 C 79 % 1020,7 hPa 0,0 l/m 2 min 0 min 369 W/m 14,6 km/h (3 Bft)
12.02.2015 13:34 7,5 C 5,6 C 79 % 1020,7 hPa 0,0 l/m 2 min 0 min 368 W/m 12,6 km/h (3 Bft)
12.02.2015 13:36 7,5 C 5,6 C 79 % 1020,8 hPa 0,0 l/m 2 min 0 min 386 W/m 18,8 km/h (3 Bft)
12.02.2015 13:38 7,5 C 5,6 C 78 % 1020,7 hPa 0,0 l/m 2 min 0 min 373 W/m 16,7 km/h (3 Bft)
12.02.2015 13:40 7,5 C 5,6 C 78 % 1020,7 hPa 0,0 l/m 2 min 0 min 370 W/m 16,7 km/h (3 Bft)
12.02.2015 13:42 7,6 C 5,6 C 78 % 1020,7 hPa 0,0 l/m 2 min 0 min 372 W/m 14,6 km/h (3 Bft)
12.02.2015 13:44 7,6 C 5,6 C 78 % 1020,7 hPa 0,0 l/m 2 min 0 min 352 W/m 18,8 km/h (3 Bft)
12.02.2015 13:46 7,6 C 5,6 C 78 % 1020,7 hPa 0,0 l/m 2 min 0 min 355 W/m 20,9 km/h (4 Bft)
12.02.2015 13:48 7,6 C 5,6 C 78 % 1020,8 hPa 0,0 l/m 2 min 0 min 356 W/m 18,8 km/h (3 Bft)
12.02.2015 13:50 7,7 C 5,6 C 78 % 1020,8 hPa 0,0 l/m 2 min 0 min 348 W/m 18,8 km/h (3 Bft)
12.02.2015 13:52 7,7 C 5,6 C 78 % 1020,9 hPa 0,0 l/m 2 min 0 min 335 W/m 18,8 km/h (3 Bft)
12.02.2015 13:54 7,7 C 5,6 C 78 % 1020,9 hPa 0,0 l/m 2 min 0 min 347 W/m 23,0 km/h (4 Bft)
12.02.2015 13:56 7,7 C 5,6 C 78 % 1020,8 hPa 0,0 l/m 2 min 0 min 356 W/m 20,9 km/h (4 Bft)
12.02.2015 13:58 7,7 C 5,6 C 78 % 1020,8 hPa 0,0 l/m 2 min 0 min 359 W/m 16,7 km/h (3 Bft)
12.02.2015 14:00 7,6 C 5,6 C 78 % 1020,8 hPa 0,0 l/m 2 min 0 min 363 W/m 18,8 km/h (3 Bft)
12.02.2015 14:02 7,6 C 5,6 C 78 % 1020,8 hPa 0,0 l/m 2 min 0 min 360 W/m 18,8 km/h (3 Bft)
12.02.2015 14:04 7,6 C 5,6 C 78 % 1020,8 hPa 0,0 l/m 2 min 0 min 358 W/m 18,8 km/h (3 Bft)
12.02.2015 14:06 7,6 C 5,6 C 78 % 1020,8 hPa 0,0 l/m 2 min 0 min 351 W/m 18,8 km/h (3 Bft)
12.02.2015 14:08 7,7 C 5,6 C 78 % 1020,9 hPa 0,0 l/m 2 min 0 min 344 W/m 18,8 km/h (3 Bft)
12.02.2015 14:10 7,7 C 5,6 C 78 % 1020,8 hPa 0,0 l/m 2 min 0 min 336 W/m 20,9 km/h (4 Bft)
12.02.2015 14:12 7,7 C 5,6 C 78 % 1020,9 hPa 0,0 l/m 2 min 0 min 331 W/m 18,8 km/h (3 Bft)
12.02.2015 14:14 7,7 C 5,6 C 78 % 1020,9 hPa 0,0 l/m 2 min 0 min 327 W/m 18,8 km/h (3 Bft)
12.02.2015 14:16 7,7 C 5,6 C 78 % 1020,8 hPa 0,0 l/m 2 min 0 min 331 W/m 16,7 km/h (3 Bft)
12.02.2015 14:18 7,7 C 5,6 C 78 % 1020,8 hPa 0,0 l/m 2 min 0 min 338 W/m 12,6 km/h (3 Bft)
12.02.2015 14:20 7,8 C 6,1 C 78 % 1020,8 hPa 0,0 l/m 2 min 0 min 335 W/m 16,7 km/h (3 Bft)
12.02.2015 14:22 7,8 C 6,1 C 78 % 1020,7 hPa 0,0 l/m 2 min 0 min 327 W/m 18,8 km/h (3 Bft)
12.02.2015 14:24 7,8 C 6,1 C 77 % 1020,8 hPa 0,0 l/m 2 min 0 min 322 W/m 20,9 km/h (4 Bft)
12.02.2015 14:26 7,8 C 6,1 C 77 % 1020,7 hPa 0,0 l/m 2 min 0 min 323 W/m 20,9 km/h (4 Bft)
12.02.2015 14:28 7,8 C 6,1 C 77 % 1020,7 hPa 0,0 l/m 2 min 0 min 325 W/m 20,9 km/h (4 Bft)
12.02.2015 14:30 7,8 C 6,1 C 77 % 1020,6 hPa 0,0 l/m 2 min 0 min 322 W/m 14,6 km/h (3 Bft)
12.02.2015 14:32 7,8 C 6,1 C 77 % 1020,6 hPa 0,0 l/m 2 min 0 min 319 W/m 18,8 km/h (3 Bft)
12.02.2015 14:34 7,8 C 6,1 C 77 % 1020,6 hPa 0,0 l/m 2 min 0 min 317 W/m 14,6 km/h (3 Bft)
12.02.2015 14:36 7,8 C 5,6 C 77 % 1020,6 hPa 0,0 l/m 2 min 0 min 300 W/m 16,7 km/h (3 Bft)
12.02.2015 14:38 7,8 C 5,6 C 77 % 1020,6 hPa 0,0 l/m 2 min 0 min 305 W/m 18,8 km/h (3 Bft)
12.02.2015 14:40 7,8 C 6,1 C 77 % 1020,5 hPa 0,0 l/m 2 min 0 min 307 W/m 12,6 km/h (3 Bft)
12.02.2015 14:42 7,9 C 6,1 C 77 % 1020,5 hPa 0,0 l/m 2 min 0 min 304 W/m 14,6 km/h (3 Bft)
12.02.2015 14:44 7,9 C 6,1 C 77 % 1020,4 hPa 0,0 l/m 2 min 0 min 300 W/m 20,9 km/h (4 Bft)
12.02.2015 14:46 7,9 C 6,1 C 77 % 1020,4 hPa 0,0 l/m 2 min 0 min 297 W/m 12,6 km/h (3 Bft)
12.02.2015 14:48 7,9 C 6,1 C 77 % 1020,3 hPa 0,0 l/m 2 min 0 min 294 W/m 18,8 km/h (3 Bft)
12.02.2015 14:50 7,9 C 6,1 C 77 % 1020,4 hPa 0,0 l/m 2 min 0 min 290 W/m 16,7 km/h (3 Bft)
12.02.2015 14:52 8,0 C 6,1 C 77 % 1020,3 hPa 0,0 l/m 2 min 0 min 285 W/m 14,6 km/h (3 Bft)
12.02.2015 14:54 8,0 C 6,1 C 77 % 1020,3 hPa 0,0 l/m 2 min 0 min 280 W/m 14,6 km/h (3 Bft)
12.02.2015 14:56 8,0 C 6,1 C 77 % 1020,3 hPa 0,0 l/m 2 min 0 min 277 W/m 16,7 km/h (3 Bft)
12.02.2015 14:58 8,1 C 6,1 C 76 % 1020,2 hPa 0,0 l/m 2 min 0 min 271 W/m 16,7 km/h (3 Bft)
12.02.2015 15:00 8,1 C 6,1 C 76 % 1020,2 hPa 0,0 l/m 2 min 0 min 268 W/m 14,6 km/h (3 Bft)
12.02.2015 15:02 8,1 C 6,1 C 76 % 1020,1 hPa 0,0 l/m 2 min 0 min 267 W/m 16,7 km/h (3 Bft)
12.02.2015 15:04 8,1 C 6,1 C 76 % 1020,2 hPa 0,0 l/m 2 min 0 min 262 W/m 20,9 km/h (4 Bft)
12.02.2015 15:06 8,1 C 6,1 C 76 % 1020,1 hPa 0,0 l/m 2 min 0 min 258 W/m 16,7 km/h (3 Bft)
12.02.2015 15:08 8,1 C 6,1 C 76 % 1020,1 hPa 0,0 l/m 2 min 0 min 258 W/m 18,8 km/h (3 Bft)
12.02.2015 15:10 8,2 C 6,1 C 76 % 1020,1 hPa 0,0 l/m 2 min 0 min 255 W/m 14,6 km/h (3 Bft)
12.02.2015 15:12 8,2 C 6,1 C 76 % 1020,0 hPa 0,0 l/m 2 min 0 min 253 W/m 14,6 km/h (3 Bft)
12.02.2015 15:14 8,2 C 6,1 C 76 % 1020,0 hPa 0,0 l/m 2 min 0 min 248 W/m 14,6 km/h (3 Bft)
12.02.2015 15:16 8,2 C 6,1 C 76 % 1020,0 hPa 0,0 l/m 2 min 0 min 243 W/m 12,6 km/h (3 Bft)
12.02.2015 15:18 8,2 C 6,1 C 76 % 1020,0 hPa 0,0 l/m 2 min 0 min 239 W/m 16,7 km/h (3 Bft)
12.02.2015 15:20 8,2 C 6,1 C 76 % 1020,0 hPa 0,0 l/m 2 min 0 min 235 W/m 18,8 km/h (3 Bft)
12.02.2015 15:22 8,2 C 6,1 C 76 % 1020,0 hPa 0,0 l/m 2 min 0 min 232 W/m 20,9 km/h (4 Bft)
12.02.2015 15:24 8,2 C 6,1 C 75 % 1020,0 hPa 0,0 l/m 2 min 0 min 228 W/m 16,7 km/h (3 Bft)
12.02.2015 15:26 8,2 C 6,1 C 75 % 1019,9 hPa 0,0 l/m 2 min 0 min 225 W/m 20,9 km/h (4 Bft)
12.02.2015 15:28 8,2 C 5,6 C 75 % 1020,0 hPa 0,0 l/m 2 min 0 min 220 W/m 20,9 km/h (4 Bft)
12.02.2015 15:30 8,2 C 5,6 C 75 % 1019,9 hPa 0,0 l/m 2 min 0 min 216 W/m 14,6 km/h (3 Bft)
12.02.2015 15:32 8,3 C 5,6 C 75 % 1020,0 hPa 0,0 l/m 2 min 0 min 210 W/m 18,8 km/h (3 Bft)
12.02.2015 15:34 8,3 C 5,6 C 75 % 1020,0 hPa 0,0 l/m 2 min 0 min 202 W/m 16,7 km/h (3 Bft)
12.02.2015 15:36 8,2 C 5,6 C 75 % 1020,0 hPa 0,0 l/m 2 min 0 min 197 W/m 20,9 km/h (4 Bft)
12.02.2015 15:38 8,2 C 5,6 C 74 % 1019,9 hPa 0,0 l/m 2 min 0 min 192 W/m 16,7 km/h (3 Bft)
12.02.2015 15:40 8,2 C 5,6 C 74 % 1019,9 hPa 0,0 l/m 2 min 0 min 190 W/m 18,8 km/h (3 Bft)
12.02.2015 15:42 8,2 C 5,6 C 75 % 1019,9 hPa 0,0 l/m 2 min 0 min 186 W/m 14,6 km/h (3 Bft)
12.02.2015 15:44 8,2 C 5,6 C 75 % 1019,9 hPa 0,0 l/m 2 min 0 min 182 W/m 18,8 km/h (3 Bft)
12.02.2015 15:46 8,2 C 5,6 C 75 % 1019,9 hPa 0,0 l/m 2 min 0 min 176 W/m 16,7 km/h (3 Bft)
12.02.2015 15:48 8,1 C 5,6 C 75 % 1019,9 hPa 0,0 l/m 2 min 0 min 172 W/m 14,6 km/h (3 Bft)
12.02.2015 15:50 8,1 C 5,6 C 75 % 1019,9 hPa 0,0 l/m 2 min 0 min 166 W/m 16,7 km/h (3 Bft)
12.02.2015 15:52 8,1 C 5,6 C 75 % 1019,9 hPa 0,0 l/m 2 min 0 min 162 W/m 16,7 km/h (3 Bft)
12.02.2015 15:54 8,1 C 5,6 C 75 % 1019,9 hPa 0,0 l/m 2 min 0 min 157 W/m 18,8 km/h (3 Bft)
12.02.2015 15:56 8,1 C 5,6 C 75 % 1019,8 hPa 0,0 l/m 2 min 0 min 152 W/m 14,6 km/h (3 Bft)
12.02.2015 15:58 8,1 C 5,6 C 75 % 1019,8 hPa 0,0 l/m 2 min 0 min 148 W/m 14,6 km/h (3 Bft)
12.02.2015 16:00 8,1 C 5,6 C 75 % 1019,8 hPa 0,0 l/m 2 min 0 min 143 W/m 18,8 km/h (3 Bft)
12.02.2015 16:02 8,1 C 5,0 C 75 % 1019,7 hPa 0,0 l/m 2 min 0 min 139 W/m 18,8 km/h (3 Bft)
12.02.2015 16:04 8,0 C 5,0 C 75 % 1019,7 hPa 0,0 l/m 2 min 0 min 135 W/m 10,5 km/h (2 Bft)
12.02.2015 16:06 7,9 C 5,0 C 75 % 1019,8 hPa 0,0 l/m 2 min 0 min 131 W/m 10,5 km/h (2 Bft)
12.02.2015 16:08 7,9 C 5,0 C 75 % 1019,7 hPa 0,0 l/m 2 min 0 min 127 W/m 10,5 km/h (2 Bft)
12.02.2015 16:10 7,9 C 5,0 C 75 % 1019,7 hPa 0,0 l/m 2 min 0 min 123 W/m 18,8 km/h (3 Bft)
12.02.2015 16:12 7,8 C 5,0 C 75 % 1019,7 hPa 0,0 l/m 2 min 0 min 119 W/m 16,7 km/h (3 Bft)
12.02.2015 16:14 7,8 C 5,0 C 75 % 1019,7 hPa 0,0 l/m 2 min 0 min 113 W/m 12,6 km/h (3 Bft)
12.02.2015 16:16 7,8 C 5,0 C 76 % 1019,7 hPa 0,0 l/m 2 min 0 min 110 W/m 18,8 km/h (3 Bft)
12.02.2015 16:18 7,7 C 5,0 C 76 % 1019,7 hPa 0,0 l/m 2 min 0 min 105 W/m 18,8 km/h (3 Bft)
12.02.2015 16:20 7,6 C 5,0 C 76 % 1019,7 hPa 0,0 l/m 2 min 0 min 100 W/m 14,6 km/h (3 Bft)
12.02.2015 16:22 7,6 C 5,0 C 76 % 1019,7 hPa 0,0 l/m 2 min 0 min 96 W/m 16,7 km/h (3 Bft)
12.02.2015 16:24 7,5 C 5,0 C 76 % 1019,7 hPa 0,0 l/m 2 min 0 min 92 W/m 12,6 km/h (3 Bft)
12.02.2015 16:26 7,4 C 5,0 C 77 % 1019,7 hPa 0,0 l/m 2 min 0 min 88 W/m 10,5 km/h (2 Bft)
12.02.2015 16:28 7,4 C 5,0 C 77 % 1019,7 hPa 0,0 l/m 2 min 0 min 84 W/m 10,5 km/h (2 Bft)
12.02.2015 16:30 7,3 C 5,0 C 77 % 1019,7 hPa 0,0 l/m 2 min 0 min 82 W/m 14,6 km/h (3 Bft)
12.02.2015 16:32 7,3 C 5,0 C 77 % 1019,7 hPa 0,0 l/m 0 min 0 min 77 W/m 14,6 km/h (3 Bft)
12.02.2015 16:34 7,2 C 5,0 C 77 % 1019,6 hPa 0,0 l/m 0 min 0 min 74 W/m 12,6 km/h (3 Bft)
12.02.2015 16:36 7,2 C 4,4 C 77 % 1019,6 hPa 0,0 l/m 0 min 0 min 69 W/m 16,7 km/h (3 Bft)
12.02.2015 16:38 7,1 C 4,4 C 77 % 1019,6 hPa 0,0 l/m 0 min 0 min 67 W/m 14,6 km/h (3 Bft)
12.02.2015 16:40 7,1 C 4,4 C 77 % 1019,5 hPa 0,0 l/m 0 min 0 min 63 W/m 14,6 km/h (3 Bft)
12.02.2015 16:42 7,0 C 4,4 C 78 % 1019,6 hPa 0,0 l/m 0 min 0 min 61 W/m 12,6 km/h (3 Bft)
12.02.2015 16:44 6,9 C 4,4 C 78 % 1019,5 hPa 0,0 l/m 0 min 0 min 57 W/m 12,6 km/h (3 Bft)
12.02.2015 16:46 6,9 C 4,4 C 78 % 1019,5 hPa 0,0 l/m 0 min 0 min 52 W/m 8,4 km/h (2 Bft)
12.02.2015 16:48 6,8 C 4,4 C 78 % 1019,6 hPa 0,0 l/m 0 min 0 min 49 W/m 12,6 km/h (3 Bft)
12.02.2015 16:50 6,8 C 4,4 C 78 % 1019,5 hPa 0,0 l/m 0 min 0 min 46 W/m 14,6 km/h (3 Bft)
12.02.2015 16:52 6,8 C 4,4 C 78 % 1019,5 hPa 0,0 l/m 0 min 0 min 44 W/m 8,4 km/h (2 Bft)
12.02.2015 16:54 6,7 C 3,9 C 78 % 1019,5 hPa 0,0 l/m 0 min 0 min 41 W/m 8,4 km/h (2 Bft)
12.02.2015 16:56 6,7 C 4,4 C 78 % 1019,5 hPa 0,0 l/m 0 min 0 min 39 W/m 12,6 km/h (3 Bft)
12.02.2015 16:58 6,7 C 4,4 C 79 % 1019,6 hPa 0,0 l/m 0 min 0 min 37 W/m 12,6 km/h (3 Bft)
12.02.2015 17:00 6,7 C 4,4 C 79 % 1019,5 hPa 0,0 l/m 0 min 0 min 35 W/m 14,6 km/h (3 Bft)
12.02.2015 17:02 6,6 C 3,9 C 79 % 1019,5 hPa 0,0 l/m 0 min 0 min 34 W/m 14,6 km/h (3 Bft)
12.02.2015 17:04 6,6 C 3,9 C 79 % 1019,5 hPa 0,0 l/m 0 min 0 min 33 W/m 14,6 km/h (3 Bft)
12.02.2015 17:06 6,5 C 3,9 C 79 % 1019,5 hPa 0,0 l/m 0 min 0 min 32 W/m 14,6 km/h (3 Bft)
12.02.2015 17:08 6,4 C 3,9 C 79 % 1019,5 hPa 0,0 l/m 0 min 0 min 30 W/m 10,5 km/h (2 Bft)
12.02.2015 17:10 6,4 C 3,9 C 79 % 1019,5 hPa 0,0 l/m 0 min 0 min 28 W/m 8,4 km/h (2 Bft)
12.02.2015 17:12 6,4 C 3,9 C 79 % 1019,5 hPa 0,0 l/m 0 min 0 min 27 W/m 12,6 km/h (3 Bft)
12.02.2015 17:14 6,4 C 3,3 C 79 % 1019,4 hPa 0,0 l/m 0 min 0 min 26 W/m 8,4 km/h (2 Bft)
12.02.2015 17:16 6,3 C 3,3 C 80 % 1019,4 hPa 0,0 l/m 0 min 0 min 25 W/m 8,4 km/h (2 Bft)
12.02.2015 17:18 6,3 C 3,3 C 80 % 1019,5 hPa 0,0 l/m 0 min 0 min 23 W/m 10,5 km/h (2 Bft)
12.02.2015 17:20 6,3 C 3,3 C 80 % 1019,5 hPa 0,0 l/m 0 min 0 min 22 W/m 12,6 km/h (3 Bft)
12.02.2015 17:22 6,2 C 3,3 C 80 % 1019,5 hPa 0,0 l/m 2 min 0 min 20 W/m 16,7 km/h (3 Bft)
12.02.2015 17:24 6,2 C 3,3 C 80 % 1019,5 hPa 0,0 l/m 2 min 0 min 19 W/m 14,6 km/h (3 Bft)
12.02.2015 17:26 6,1 C 3,3 C 80 % 1019,5 hPa 0,0 l/m 2 min 0 min 18 W/m 14,6 km/h (3 Bft)
12.02.2015 17:28 6,1 C 3,3 C 80 % 1019,5 hPa 0,0 l/m 2 min 0 min 16 W/m 14,6 km/h (3 Bft)
12.02.2015 17:30 6,0 C 3,3 C 80 % 1019,5 hPa 0,0 l/m 2 min 0 min 15 W/m 10,5 km/h (2 Bft)
12.02.2015 17:32 5,9 C 2,8 C 80 % 1019,6 hPa 0,0 l/m 2 min 0 min 13 W/m 8,4 km/h (2 Bft)
12.02.2015 17:34 5,9 C 2,8 C 80 % 1019,5 hPa 0,0 l/m 0 min 0 min 12 W/m 8,4 km/h (2 Bft)
12.02.2015 17:36 5,9 C 2,8 C 80 % 1019,6 hPa 0,0 l/m 0 min 0 min 11 W/m 10,5 km/h (2 Bft)
12.02.2015 17:38 5,8 C 2,8 C 80 % 1019,6 hPa 0,0 l/m 0 min 0 min 10 W/m 8,4 km/h (2 Bft)
12.02.2015 17:40 5,8 C 2,8 C 81 % 1019,6 hPa 0,0 l/m 0 min 0 min 9 W/m 10,5 km/h (2 Bft)
12.02.2015 17:42 5,7 C 2,8 C 81 % 1019,7 hPa 0,0 l/m 0 min 0 min 9 W/m 10,5 km/h (2 Bft)
12.02.2015 17:44 5,7 C 2,2 C 81 % 1019,7 hPa 0,0 l/m 0 min 0 min 7 W/m 10,5 km/h (2 Bft)
12.02.2015 17:46 5,7 C 2,2 C 81 % 1019,7 hPa 0,0 l/m 0 min 0 min 7 W/m 8,4 km/h (2 Bft)
12.02.2015 17:48 5,6 C 2,2 C 81 % 1019,8 hPa 0,0 l/m 0 min 0 min 6 W/m 8,4 km/h (2 Bft)
12.02.2015 17:50 5,6 C 2,2 C 81 % 1019,8 hPa 0,0 l/m 0 min 0 min 5 W/m 10,5 km/h (2 Bft)
12.02.2015 17:52 5,5 C 2,2 C 81 % 1019,8 hPa 0,0 l/m 0 min 0 min 5 W/m 8,4 km/h (2 Bft)
12.02.2015 17:54 5,4 C 2,2 C 81 % 1019,8 hPa 0,0 l/m 0 min 0 min 2 W/m 8,4 km/h (2 Bft)
12.02.2015 17:56 5,4 C 2,2 C 81 % 1019,8 hPa 0,0 l/m 0 min 0 min 0 W/m 6,3 km/h (2 Bft)
12.02.2015 17:58 5,4 C 2,2 C 81 % 1019,8 hPa 0,0 l/m 0 min 0 min 0 W/m 6,3 km/h (2 Bft)
12.02.2015 18:00 5,3 C 1,7 C 81 % 1019,8 hPa 0,0 l/m 0 min 0 min 0 W/m 8,4 km/h (2 Bft)
12.02.2015 18:04 5,3 C 2,2 C 82 % 1019,8 hPa 0,0 l/m 0 min 0 min 0 W/m 10,5 km/h (2 Bft)
12.02.2015 18:06 5,2 C 1,7 C 82 % 1019,7 hPa 0,0 l/m 0 min 0 min 0 W/m 8,4 km/h (2 Bft)
12.02.2015 18:08 5,2 C 1,7 C 82 % 1019,7 hPa 0,0 l/m 0 min 0 min 0 W/m 6,3 km/h (2 Bft)
12.02.2015 18:10 5,1 C 1,7 C 82 % 1019,8 hPa 0,0 l/m 0 min 0 min 0 W/m 8,4 km/h (2 Bft)
12.02.2015 18:12 5,1 C 1,7 C 82 % 1019,8 hPa 0,0 l/m 0 min 0 min 0 W/m 8,4 km/h (2 Bft)
12.02.2015 18:14 5,0 C 1,7 C 82 % 1019,8 hPa 0,0 l/m 0 min 0 min 0 W/m 8,4 km/h (2 Bft)
12.02.2015 18:16 4,9 C 1,7 C 82 % 1019,8 hPa 0,0 l/m 0 min 0 min 0 W/m 10,5 km/h (2 Bft)
12.02.2015 18:18 4,9 C 1,7 C 82 % 1019,8 hPa 0,0 l/m 0 min 0 min 0 W/m 10,5 km/h (2 Bft)
12.02.2015 18:20 4,9 C 1,7 C 83 % 1019,8 hPa 0,0 l/m 0 min 0 min 0 W/m 8,4 km/h (2 Bft)
12.02.2015 18:22 4,8 C 1,7 C 83 % 1019,8 hPa 0,0 l/m 0 min 0 min 0 W/m 8,4 km/h (2 Bft)
12.02.2015 18:24 4,8 C 1,7 C 83 % 1019,8 hPa 0,0 l/m 0 min 0 min 0 W/m 6,3 km/h (2 Bft)
12.02.2015 18:26 4,7 C 1,7 C 83 % 1019,7 hPa 0,0 l/m 0 min 0 min 0 W/m 6,3 km/h (2 Bft)
12.02.2015 18:28 4,7 C 1,7 C 83 % 1019,8 hPa 0,0 l/m 0 min 0 min 0 W/m 8,4 km/h (2 Bft)
12.02.2015 18:30 4,7 C 1,7 C 83 % 1019,8 hPa 0,0 l/m 0 min 0 min 0 W/m 8,4 km/h (2 Bft)
12.02.2015 18:32 4,6 C 1,7 C 83 % 1019,7 hPa 0,0 l/m 0 min 0 min 0 W/m 16,7 km/h (3 Bft)
12.02.2015 18:34 4,6 C 1,7 C 83 % 1019,7 hPa 0,0 l/m 0 min 0 min 0 W/m 12,6 km/h (3 Bft)
12.02.2015 18:36 4,5 C 1,7 C 83 % 1019,8 hPa 0,0 l/m 0 min 0 min 0 W/m 14,6 km/h (3 Bft)
12.02.2015 18:38 4,4 C 1,7 C 84 % 1019,7 hPa 0,0 l/m 0 min 0 min 0 W/m 18,8 km/h (3 Bft)
12.02.2015 18:40 4,4 C 1,7 C 84 % 1019,8 hPa 0,0 l/m 0 min 0 min 0 W/m 12,6 km/h (3 Bft)
12.02.2015 18:42 4,4 C 1,7 C 84 % 1019,7 hPa 0,0 l/m 0 min 0 min 0 W/m 12,6 km/h (3 Bft)
12.02.2015 18:44 4,3 C 1,7 C 84 % 1019,8 hPa 0,0 l/m 0 min 0 min 0 W/m 8,4 km/h (2 Bft)
12.02.2015 18:46 4,3 C 1,7 C 84 % 1019,8 hPa 0,0 l/m 0 min 0 min 0 W/m 10,5 km/h (2 Bft)
12.02.2015 18:48 4,3 C 1,7 C 84 % 1019,8 hPa 0,0 l/m 0 min 0 min 0 W/m 10,5 km/h (2 Bft)
12.02.2015 18:50 4,2 C 1,7 C 84 % 1019,8 hPa 0,0 l/m 0 min 0 min 0 W/m 8,4 km/h (2 Bft)
12.02.2015 18:52 4,2 C 1,7 C 85 % 1019,7 hPa 0,0 l/m 0 min 0 min 0 W/m 18,8 km/h (3 Bft)
12.02.2015 18:54 4,2 C 1,7 C 84 % 1019,7 hPa 0,0 l/m 0 min 0 min 0 W/m 14,6 km/h (3 Bft)
12.02.2015 18:56 4,1 C 1,7 C 85 % 1019,7 hPa 0,0 l/m 0 min 0 min 0 W/m 18,8 km/h (3 Bft)
12.02.2015 18:58 4,1 C 1,7 C 85 % 1019,7 hPa 0,0 l/m 0 min 0 min 0 W/m 16,7 km/h (3 Bft)
12.02.2015 19:00 4,1 C 1,7 C 85 % 1019,7 hPa 0,0 l/m 0 min 0 min 0 W/m 18,8 km/h (3 Bft)
12.02.2015 19:02 4,1 C 1,7 C 85 % 1019,7 hPa 0,0 l/m 0 min 0 min 0 W/m 18,8 km/h (3 Bft)
12.02.2015 19:04 4,1 C 1,7 C 85 % 1019,7 hPa 0,0 l/m 0 min 0 min 0 W/m 12,6 km/h (3 Bft)
12.02.2015 19:06 4,0 C 1,7 C 85 % 1019,7 hPa 0,0 l/m 0 min 0 min 0 W/m 16,7 km/h (3 Bft)
12.02.2015 19:08 4,0 C 1,7 C 85 % 1019,6 hPa 0,0 l/m 0 min 0 min 0 W/m 14,6 km/h (3 Bft)
12.02.2015 19:10 3,9 C 1,7 C 85 % 1019,6 hPa 0,0 l/m 0 min 0 min 0 W/m 16,7 km/h (3 Bft)
12.02.2015 19:12 3,9 C 1,7 C 85 % 1019,7 hPa 0,0 l/m 0 min 0 min 0 W/m 16,7 km/h (3 Bft)
12.02.2015 19:14 3,9 C 1,7 C 85 % 1019,6 hPa 0,0 l/m 0 min 0 min 0 W/m 10,5 km/h (2 Bft)
12.02.2015 19:16 3,9 C 1,7 C 85 % 1019,7 hPa 0,0 l/m 0 min 0 min 0 W/m 10,5 km/h (2 Bft)
12.02.2015 19:18 3,9 C 1,7 C 85 % 1019,7 hPa 0,0 l/m 0 min 0 min 0 W/m 10,5 km/h (2 Bft)
12.02.2015 19:20 3,8 C 1,7 C 85 % 1019,7 hPa 0,0 l/m 0 min 0 min 0 W/m 10,5 km/h (2 Bft)
12.02.2015 19:22 3,8 C 1,7 C 85 % 1019,8 hPa 0,0 l/m 0 min 0 min 0 W/m 10,5 km/h (2 Bft)
12.02.2015 19:24 3,8 C 1,7 C 85 % 1019,8 hPa 0,0 l/m 0 min 0 min 0 W/m 14,6 km/h (3 Bft)
12.02.2015 19:26 3,7 C 1,1 C 85 % 1019,8 hPa 0,0 l/m 0 min 0 min 0 W/m 10,5 km/h (2 Bft)
12.02.2015 19:28 3,7 C 1,1 C 85 % 1019,8 hPa 0,0 l/m 0 min 0 min 0 W/m 14,6 km/h (3 Bft)
12.02.2015 19:30 3,7 C 1,1 C 86 % 1019,7 hPa 0,0 l/m 0 min 0 min 0 W/m 14,6 km/h (3 Bft)
12.02.2015 19:32 3,7 C 1,1 C 86 % 1019,8 hPa 0,0 l/m 0 min 0 min 0 W/m 16,7 km/h (3 Bft)
12.02.2015 19:34 3,6 C 1,1 C 86 % 1019,8 hPa 0,0 l/m 0 min 0 min 0 W/m 14,6 km/h (3 Bft)
12.02.2015 19:36 3,6 C 1,1 C 86 % 1019,8 hPa 0,0 l/m 0 min 0 min 0 W/m 16,7 km/h (3 Bft)
12.02.2015 19:38 3,6 C 1,1 C 86 % 1019,7 hPa 0,0 l/m 0 min 0 min 0 W/m 10,5 km/h (2 Bft)
12.02.2015 19:40 3,6 C 1,1 C 86 % 1019,7 hPa 0,0 l/m 0 min 0 min 0 W/m 16,7 km/h (3 Bft)
12.02.2015 19:42 3,5 C 1,1 C 86 % 1019,7 hPa 0,0 l/m 0 min 0 min 0 W/m 12,6 km/h (3 Bft)
12.02.2015 19:44 3,5 C 1,1 C 86 % 1019,8 hPa 0,0 l/m 0 min 0 min 0 W/m 14,6 km/h (3 Bft)
12.02.2015 19:46 3,4 C 1,1 C 86 % 1019,7 hPa 0,0 l/m 0 min 0 min 0 W/m 14,6 km/h (3 Bft)
12.02.2015 19:48 3,4 C 1,1 C 86 % 1019,7 hPa 0,0 l/m 0 min 0 min 0 W/m 14,6 km/h (3 Bft)
12.02.2015 19:50 3,4 C 1,1 C 86 % 1019,7 hPa 0,0 l/m 0 min 0 min 0 W/m 10,5 km/h (2 Bft)
12.02.2015 19:52 3,4 C 1,1 C 86 % 1019,7 hPa 0,0 l/m 0 min 0 min 0 W/m 14,6 km/h (3 Bft)
12.02.2015 19:54 3,3 C 1,1 C 86 % 1019,6 hPa 0,0 l/m 0 min 0 min 0 W/m 16,7 km/h (3 Bft)
12.02.2015 19:56 3,3 C 1,1 C 86 % 1019,7 hPa 0,0 l/m 0 min 0 min 0 W/m 14,6 km/h (3 Bft)
12.02.2015 19:58 3,3 C 1,1 C 87 % 1019,7 hPa 0,0 l/m 0 min 0 min 0 W/m 14,6 km/h (3 Bft)
12.02.2015 20:00 3,3 C 1,1 C 87 % 1019,7 hPa 0,0 l/m 0 min 0 min 0 W/m 14,6 km/h (3 Bft)
12.02.2015 20:02 3,2 C 1,1 C 87 % 1019,7 hPa 0,0 l/m 0 min 0 min 0 W/m 14,6 km/h (3 Bft)
12.02.2015 20:04 3,2 C 1,1 C 87 % 1019,7 hPa 0,0 l/m 0 min 0 min 0 W/m 14,6 km/h (3 Bft)
12.02.2015 20:06 3,2 C 1,1 C 87 % 1019,7 hPa 0,0 l/m 0 min 0 min 0 W/m 14,6 km/h (3 Bft)
12.02.2015 20:08 3,2 C 1,1 C 87 % 1019,7 hPa 0,0 l/m 0 min 0 min 0 W/m 18,8 km/h (3 Bft)
12.02.2015 20:10 3,1 C 1,1 C 87 % 1019,7 hPa 0,0 l/m 0 min 0 min 0 W/m 16,7 km/h (3 Bft)
12.02.2015 20:12 3,1 C 1,1 C 87 % 1019,7 hPa 0,0 l/m 0 min 0 min 0 W/m 12,6 km/h (3 Bft)
12.02.2015 20:14 3,1 C 1,1 C 87 % 1019,7 hPa 0,0 l/m 0 min 0 min 0 W/m 16,7 km/h (3 Bft)
12.02.2015 20:16 3,1 C 1,1 C 87 % 1019,7 hPa 0,0 l/m 0 min 0 min 0 W/m 12,6 km/h (3 Bft)
12.02.2015 20:18 3,1 C 1,1 C 87 % 1019,7 hPa 0,0 l/m 0 min 0 min 0 W/m 18,8 km/h (3 Bft)
12.02.2015 20:20 3,0 C 1,1 C 87 % 1019,7 hPa 0,0 l/m 0 min 0 min 0 W/m 10,5 km/h (2 Bft)
12.02.2015 20:22 3,0 C 1,1 C 87 % 1019,7 hPa 0,0 l/m 0 min 0 min 0 W/m 14,6 km/h (3 Bft)
12.02.2015 20:24 2,9 C 1,1 C 87 % 1019,7 hPa 0,0 l/m 0 min 0 min 0 W/m 10,5 km/h (2 Bft)
12.02.2015 20:26 2,9 C 1,1 C 87 % 1019,7 hPa 0,0 l/m 0 min 0 min 0 W/m 16,7 km/h (3 Bft)
12.02.2015 20:28 2,9 C 1,1 C 88 % 1019,7 hPa 0,0 l/m 0 min 0 min 0 W/m 10,5 km/h (2 Bft)
12.02.2015 20:30 2,9 C 0,6 C 88 % 1019,7 hPa 0,0 l/m 0 min 0 min 0 W/m 14,6 km/h (3 Bft)
12.02.2015 20:32 2,8 C 1,1 C 88 % 1019,7 hPa 0,0 l/m 0 min 0 min 0 W/m 14,6 km/h (3 Bft)
12.02.2015 20:34 2,8 C 1,1 C 88 % 1019,7 hPa 0,0 l/m 0 min 0 min 0 W/m 12,6 km/h (3 Bft)
12.02.2015 20:36 2,8 C 1,1 C 88 % 1019,7 hPa 0,0 l/m 0 min 0 min 0 W/m 14,6 km/h (3 Bft)
12.02.2015 20:38 2,8 C 0,6 C 88 % 1019,7 hPa 0,0 l/m 0 min 0 min 0 W/m 12,6 km/h (3 Bft)
12.02.2015 20:40 2,8 C 0,6 C 88 % 1019,7 hPa 0,0 l/m 0 min 0 min 0 W/m 10,5 km/h (2 Bft)
12.02.2015 20:42 2,8 C 0,6 C 88 % 1019,7 hPa 0,0 l/m 0 min 0 min 0 W/m 16,7 km/h (3 Bft)
12.02.2015 20:44 2,7 C 0,6 C 88 % 1019,7 hPa 0,0 l/m 0 min 0 min 0 W/m 14,6 km/h (3 Bft)
12.02.2015 20:46 2,7 C 0,6 C 88 % 1019,7 hPa 0,0 l/m 0 min 0 min 0 W/m 14,6 km/h (3 Bft)
12.02.2015 20:48 2,7 C 0,6 C 88 % 1019,8 hPa 0,0 l/m 0 min 0 min 0 W/m 14,6 km/h (3 Bft)
12.02.2015 20:50 2,7 C 0,6 C 89 % 1019,8 hPa 0,0 l/m 0 min 0 min 0 W/m 14,6 km/h (3 Bft)
12.02.2015 20:52 2,7 C 0,6 C 89 % 1019,8 hPa 0,0 l/m 0 min 0 min 0 W/m 10,5 km/h (2 Bft)
12.02.2015 20:54 2,7 C 0,6 C 89 % 1019,8 hPa 0,0 l/m 0 min 0 min 0 W/m 14,6 km/h (3 Bft)
12.02.2015 20:56 2,6 C 0,6 C 89 % 1019,8 hPa 0,0 l/m 0 min 0 min 0 W/m 12,6 km/h (3 Bft)
12.02.2015 20:58 2,6 C 0,6 C 89 % 1019,8 hPa 0,0 l/m 0 min 0 min 0 W/m 14,6 km/h (3 Bft)
12.02.2015 21:00 2,6 C 0,6 C 89 % 1019,8 hPa 0,0 l/m 0 min 0 min 0 W/m 12,6 km/h (3 Bft)
12.02.2015 21:02 2,6 C 0,6 C 89 % 1019,8 hPa 0,0 l/m 0 min 0 min 0 W/m 14,6 km/h (3 Bft)
12.02.2015 21:04 2,5 C 0,6 C 89 % 1019,8 hPa 0,0 l/m 0 min 0 min 0 W/m 16,7 km/h (3 Bft)
12.02.2015 21:06 2,5 C 0,6 C 89 % 1019,8 hPa 0,0 l/m 0 min 0 min 0 W/m 14,6 km/h (3 Bft)
12.02.2015 21:08 2,5 C 0,6 C 89 % 1019,8 hPa 0,0 l/m 0 min 0 min 0 W/m 14,6 km/h (3 Bft)
12.02.2015 21:10 2,4 C 0,6 C 89 % 1019,8 hPa 0,0 l/m 0 min 0 min 0 W/m 14,6 km/h (3 Bft)
12.02.2015 21:12 2,4 C 0,6 C 89 % 1019,9 hPa 0,0 l/m 0 min 0 min 0 W/m 10,5 km/h (2 Bft)
12.02.2015 21:14 2,4 C 0,6 C 89 % 1019,8 hPa 0,0 l/m 0 min 0 min 0 W/m 16,7 km/h (3 Bft)
12.02.2015 21:16 2,4 C 0,6 C 89 % 1019,8 hPa 0,0 l/m 0 min 0 min 0 W/m 14,6 km/h (3 Bft)
12.02.2015 21:18 2,4 C 0,6 C 89 % 1019,8 hPa 0,0 l/m 0 min 0 min 0 W/m 18,8 km/h (3 Bft)
12.02.2015 21:20 2,3 C 0,6 C 89 % 1019,8 hPa 0,0 l/m 0 min 0 min 0 W/m 10,5 km/h (2 Bft)
12.02.2015 21:22 2,3 C 0,6 C 89 % 1019,8 hPa 0,0 l/m 0 min 0 min 0 W/m 12,6 km/h (3 Bft)
12.02.2015 21:24 2,3 C 0,6 C 90 % 1019,8 hPa 0,0 l/m 0 min 0 min 0 W/m 12,6 km/h (3 Bft)
12.02.2015 21:26 2,3 C 0,6 C 90 % 1019,8 hPa 0,0 l/m 0 min 0 min 0 W/m 14,6 km/h (3 Bft)
12.02.2015 21:28 2,3 C 0,6 C 90 % 1019,8 hPa 0,0 l/m 0 min 0 min 0 W/m 10,5 km/h (2 Bft)
12.02.2015 21:30 2,2 C 0,6 C 90 % 1019,8 hPa 0,0 l/m 0 min 0 min 0 W/m 14,6 km/h (3 Bft)
12.02.2015 21:32 2,2 C 0,6 C 90 % 1019,8 hPa 0,0 l/m 0 min 0 min 0 W/m 16,7 km/h (3 Bft)
12.02.2015 21:34 2,2 C 0,6 C 90 % 1019,8 hPa 0,0 l/m 0 min 0 min 0 W/m 18,8 km/h (3 Bft)
12.02.2015 21:36 2,2 C 0,6 C 90 % 1019,8 hPa 0,0 l/m 0 min 0 min 0 W/m 18,8 km/h (3 Bft)
12.02.2015 21:38 2,2 C 0,6 C 90 % 1019,8 hPa 0,0 l/m 0 min 0 min 0 W/m 20,9 km/h (4 Bft)
12.02.2015 21:40 2,2 C 0,6 C 90 % 1019,8 hPa 0,0 l/m 0 min 0 min 0 W/m 18,8 km/h (3 Bft)
12.02.2015 21:42 2,2 C 0,6 C 90 % 1019,8 hPa 0,0 l/m 0 min 0 min 0 W/m 18,8 km/h (3 Bft)
12.02.2015 21:44 2,1 C 0,6 C 90 % 1019,9 hPa 0,0 l/m 0 min 0 min 0 W/m 18,8 km/h (3 Bft)
12.02.2015 21:46 2,1 C 0,6 C 90 % 1019,7 hPa 0,0 l/m 0 min 0 min 0 W/m 16,7 km/h (3 Bft)
12.02.2015 21:48 2,1 C 0,6 C 90 % 1019,8 hPa 0,0 l/m 0 min 0 min 0 W/m 16,7 km/h (3 Bft)
12.02.2015 21:50 2,1 C 0,6 C 91 % 1019,8 hPa 0,0 l/m 0 min 0 min 0 W/m 14,6 km/h (3 Bft)
12.02.2015 21:52 2,1 C 0,6 C 91 % 1019,8 hPa 0,0 l/m 0 min 0 min 0 W/m 20,9 km/h (4 Bft)
12.02.2015 21:54 2,1 C 0,0 C 91 % 1019,8 hPa 0,0 l/m 0 min 0 min 0 W/m 10,5 km/h (2 Bft)
12.02.2015 21:56 2,0 C 0,6 C 91 % 1019,7 hPa 0,0 l/m 0 min 0 min 0 W/m 14,6 km/h (3 Bft)
12.02.2015 21:58 2,0 C 0,0 C 91 % 1019,7 hPa 0,0 l/m 0 min 0 min 0 W/m 14,6 km/h (3 Bft)
12.02.2015 22:00 1,9 C 0,0 C 91 % 1019,6 hPa 0,0 l/m 0 min 0 min 0 W/m 14,6 km/h (3 Bft)
12.02.2015 22:02 1,9 C 0,0 C 91 % 1019,6 hPa 0,0 l/m 0 min 0 min 0 W/m 16,7 km/h (3 Bft)
12.02.2015 22:04 1,9 C 0,0 C 91 % 1019,7 hPa 0,0 l/m 0 min 0 min 0 W/m 16,7 km/h (3 Bft)
12.02.2015 22:06 1,9 C 0,0 C 91 % 1019,7 hPa 0,0 l/m 0 min 0 min 0 W/m 16,7 km/h (3 Bft)
12.02.2015 22:08 1,9 C 0,0 C 91 % 1019,7 hPa 0,0 l/m 0 min 0 min 0 W/m 20,9 km/h (4 Bft)
12.02.2015 22:10 1,9 C 0,0 C 91 % 1019,7 hPa 0,0 l/m 0 min 0 min 0 W/m 14,6 km/h (3 Bft)
12.02.2015 22:12 1,9 C 0,0 C 91 % 1019,6 hPa 0,0 l/m 0 min 0 min 0 W/m 16,7 km/h (3 Bft)
12.02.2015 22:14 1,8 C 0,0 C 91 % 1019,6 hPa 0,0 l/m 0 min 0 min 0 W/m 18,8 km/h (3 Bft)
12.02.2015 22:16 1,8 C 0,0 C 91 % 1019,6 hPa 0,0 l/m 0 min 0 min 0 W/m 16,7 km/h (3 Bft)
12.02.2015 22:18 1,8 C 0,0 C 91 % 1019,6 hPa 0,0 l/m 0 min 0 min 0 W/m 14,6 km/h (3 Bft)
12.02.2015 22:20 1,8 C 0,0 C 91 % 1019,6 hPa 0,0 l/m 0 min 0 min 0 W/m 16,7 km/h (3 Bft)
12.02.2015 22:22 1,8 C 0,0 C 91 % 1019,7 hPa 0,0 l/m 0 min 0 min 0 W/m 18,8 km/h (3 Bft)
12.02.2015 22:24 1,8 C 0,0 C 91 % 1019,6 hPa 0,0 l/m 0 min 0 min 0 W/m 16,7 km/h (3 Bft)
12.02.2015 22:26 1,7 C 0,0 C 91 % 1019,6 hPa 0,0 l/m 0 min 0 min 0 W/m 12,6 km/h (3 Bft)
12.02.2015 22:28 1,7 C 0,0 C 91 % 1019,5 hPa 0,0 l/m 0 min 0 min 0 W/m 16,7 km/h (3 Bft)
12.02.2015 22:30 1,7 C 0,0 C 92 % 1019,5 hPa 0,0 l/m 0 min 0 min 0 W/m 18,8 km/h (3 Bft)
12.02.2015 22:32 1,7 C 0,0 C 92 % 1019,5 hPa 0,0 l/m 0 min 0 min 0 W/m 16,7 km/h (3 Bft)
12.02.2015 22:34 1,7 C 0,0 C 92 % 1019,5 hPa 0,0 l/m 0 min 0 min 0 W/m 16,7 km/h (3 Bft)
12.02.2015 22:36 1,7 C 0,0 C 92 % 1019,5 hPa 0,0 l/m 0 min 0 min 0 W/m 16,7 km/h (3 Bft)
12.02.2015 22:38 1,6 C 0,0 C 91 % 1019,5 hPa 0,0 l/m 0 min 0 min 0 W/m 14,6 km/h (3 Bft)
12.02.2015 22:40 1,6 C 0,0 C 91 % 1019,6 hPa 0,0 l/m 0 min 0 min 0 W/m 18,8 km/h (3 Bft)
12.02.2015 22:42 1,6 C 0,0 C 92 % 1019,4 hPa 0,0 l/m 0 min 0 min 0 W/m 18,8 km/h (3 Bft)
12.02.2015 22:44 1,6 C 0,0 C 92 % 1019,4 hPa 0,0 l/m 0 min 0 min 0 W/m 16,7 km/h (3 Bft)
12.02.2015 22:46 1,6 C 0,0 C 92 % 1019,4 hPa 0,0 l/m 0 min 0 min 0 W/m 18,8 km/h (3 Bft)
12.02.2015 22:48 1,6 C 0,0 C 92 % 1019,3 hPa 0,0 l/m 0 min 0 min 0 W/m 16,7 km/h (3 Bft)
12.02.2015 22:50 1,5 C 0,0 C 92 % 1019,4 hPa 0,0 l/m 0 min 0 min 0 W/m 18,8 km/h (3 Bft)
12.02.2015 22:52 1,5 C 0,0 C 92 % 1019,4 hPa 0,0 l/m 0 min 0 min 0 W/m 16,7 km/h (3 Bft)
12.02.2015 22:54 1,5 C 0,0 C 92 % 1019,4 hPa 0,0 l/m 0 min 0 min 0 W/m 18,8 km/h (3 Bft)
12.02.2015 22:56 1,5 C 0,0 C 92 % 1019,5 hPa 0,0 l/m 0 min 0 min 0 W/m 16,7 km/h (3 Bft)
12.02.2015 22:58 1,4 C 0,0 C 92 % 1019,5 hPa 0,0 l/m 0 min 0 min 0 W/m 18,8 km/h (3 Bft)
12.02.2015 23:00 1,4 C 0,0 C 92 % 1019,4 hPa 0,0 l/m 0 min 0 min 0 W/m 18,8 km/h (3 Bft)
12.02.2015 23:02 1,4 C 0,0 C 92 % 1019,4 hPa 0,0 l/m 0 min 0 min 0 W/m 16,7 km/h (3 Bft)
12.02.2015 23:04 1,4 C 0,0 C 92 % 1019,4 hPa 0,0 l/m 0 min 0 min 0 W/m 16,7 km/h (3 Bft)
12.02.2015 23:06 1,4 C -0,6 C 92 % 1019,4 hPa 0,0 l/m 0 min 0 min 0 W/m 18,8 km/h (3 Bft)
12.02.2015 23:08 1,4 C 0,0 C 92 % 1019,3 hPa 0,0 l/m 0 min 0 min 0 W/m 16,7 km/h (3 Bft)
12.02.2015 23:10 1,3 C 0,0 C 92 % 1019,3 hPa 0,0 l/m 0 min 0 min 0 W/m 18,8 km/h (3 Bft)
12.02.2015 23:12 1,3 C 0,0 C 92 % 1019,3 hPa 0,0 l/m 0 min 0 min 0 W/m 18,8 km/h (3 Bft)
12.02.2015 23:14 1,3 C 0,0 C 92 % 1019,4 hPa 0,0 l/m 0 min 0 min 0 W/m 16,7 km/h (3 Bft)
12.02.2015 23:16 1,3 C 0,0 C 92 % 1019,3 hPa 0,0 l/m 0 min 0 min 0 W/m 18,8 km/h (3 Bft)
12.02.2015 23:18 1,3 C 0,0 C 92 % 1019,4 hPa 0,0 l/m 0 min 0 min 0 W/m 16,7 km/h (3 Bft)
12.02.2015 23:20 1,3 C -0,6 C 92 % 1019,3 hPa 0,0 l/m 0 min 0 min 0 W/m 14,6 km/h (3 Bft)
12.02.2015 23:22 1,3 C -0,6 C 92 % 1019,3 hPa 0,0 l/m 0 min 0 min 0 W/m 18,8 km/h (3 Bft)
12.02.2015 23:24 1,2 C -0,6 C 92 % 1019,3 hPa 0,0 l/m 0 min 0 min 0 W/m 16,7 km/h (3 Bft)
12.02.2015 23:26 1,2 C -0,6 C 92 % 1019,3 hPa 0,0 l/m 0 min 0 min 0 W/m 18,8 km/h (3 Bft)
12.02.2015 23:28 1,2 C -0,6 C 92 % 1019,3 hPa 0,0 l/m 0 min 0 min 0 W/m 16,7 km/h (3 Bft)
12.02.2015 23:30 1,2 C -0,6 C 93 % 1019,4 hPa 0,0 l/m 0 min 0 min 0 W/m 20,9 km/h (4 Bft)
12.02.2015 23:32 1,2 C -0,6 C 92 % 1019,4 hPa 0,0 l/m 0 min 0 min 0 W/m 23,0 km/h (4 Bft)
12.02.2015 23:34 1,2 C -0,6 C 92 % 1019,3 hPa 0,0 l/m 0 min 0 min 0 W/m 18,8 km/h (3 Bft)
12.02.2015 23:36 1,2 C -0,6 C 92 % 1019,3 hPa 0,0 l/m 0 min 0 min 0 W/m 18,8 km/h (3 Bft)
12.02.2015 23:38 1,1 C -0,6 C 92 % 1019,3 hPa 0,0 l/m 0 min 0 min 0 W/m 16,7 km/h (3 Bft)
12.02.2015 23:40 1,1 C -0,6 C 93 % 1019,2 hPa 0,0 l/m 0 min 0 min 0 W/m 14,6 km/h (3 Bft)
12.02.2015 23:42 1,1 C -0,6 C 93 % 1019,3 hPa 0,0 l/m 0 min 0 min 0 W/m 16,7 km/h (3 Bft)
12.02.2015 23:44 1,1 C -0,6 C 93 % 1019,2 hPa 0,0 l/m 0 min 0 min 0 W/m 20,9 km/h (4 Bft)
12.02.2015 23:46 1,1 C -0,6 C 93 % 1019,2 hPa 0,0 l/m 0 min 0 min 0 W/m 25,1 km/h (4 Bft)
12.02.2015 23:48 1,1 C -0,6 C 93 % 1019,2 hPa 0,0 l/m 0 min 0 min 0 W/m 14,6 km/h (3 Bft)
12.02.2015 23:50 1,1 C -0,6 C 93 % 1019,3 hPa 0,0 l/m 0 min 0 min 0 W/m 16,7 km/h (3 Bft)
12.02.2015 23:52 1,0 C -0,6 C 93 % 1019,3 hPa 0,0 l/m 0 min 0 min 0 W/m 16,7 km/h (3 Bft)
12.02.2015 23:54 1,0 C -0,6 C 93 % 1019,2 hPa 0,0 l/m 0 min 0 min 0 W/m 16,7 km/h (3 Bft)
12.02.2015 23:56 1,0 C -0,6 C 93 % 1019,2 hPa 0,0 l/m 0 min 0 min 0 W/m 16,7 km/h (3 Bft)
12.02.2015 23:58 0,9 C -0,6 C 93 % 1019,2 hPa 0,0 l/m 0 min 0 min 0 W/m 18,8 km/h (3 Bft)
_ Min-Zeit 07:56 05:22 15:38 23:40 - - - - 00:02
Minimum _ -0,1 C -1,7 C 74 % 1019,2 hPa - - - - 4,2 km/h (1 Bft)
_ Max-Zeit 15:22 14:20 09:32 00:30 05:48 08:06 00:00 12:34 00:26
Maximum _ 8,3 C 6,1 C 97 % 1022,2 hPa 0,2 l/m 2 min 0 min 418 W/m 29,3 km/h
S (5 Bft)
Durchschnitt _ 3,0 C 1,2 C 89 % 1020,9 hPa #0,2 l/m #8:12 h #0 min. 216 W/m 15,2 km/h (3 Bft)
© 2015 W. Hausmann